[{"header": {"dx": 0.06612293990616946, "dy": 0.0552356325346848, "nx": 98, "ny": 59, "la1": 35.046912555036876, "la2": 31.78801023549047, "lo1": -121.43107172385933, "lo2": -114.95102361305473, "refTime": "2026041721", "parameterCategory": 1, "parameterNumber": 2}, "data": [5.38, 5.06, 5.01, 4.71, 4.65, 4.84, 5.08, 5.08, 5.31, 4.9, 5.24, 5.24, 8.05, 8.49, 8.45, 8.45, 8.89, 8.29, 8.06, 7.47, 7.47, 7.47, 6.94, 7.54, 7.6, 6.64, 3.48, 0.0, -2.48, -2.48, -2.0, -1.08, 0.0, 0.0, 0.96, 0.96, 0.0, 0.0, 0.88, 1.99, 1.8, 0.0, -4.47, -4.8, -5.94, -5.26, -5.26, -5.36, -5.36, -4.92, -4.34, -4.34, -4.34, -3.82, -3.35, -2.84, -2.84, -2.53, -2.53, -2.21, -2.8, -2.21, -1.6, 0.0, -1.08, -1.05, -1.05, -1.14, -0.96, -1.98, -1.98, -0.96, -0.96, -0.96, 0.0, 0.0, 0.0, 0.83, 0.94, 0.89, 1.84, 3.45, 4.34, 6.18, 6.32, 7.07, 7.76, 8.06, 8.29, 7.85, 7.37, 6.64, 4.92, 2.84, 2.68, -1.6, -1.99, -1.98, 5.1, 4.75, 4.74, 4.71, 4.65, 4.65, 5.08, 5.31, 4.9, 5.09, 4.77, 7.1, 7.6, 8.05, 9.39, 8.85, 7.85, 9.26, 8.38, 6.88, 7.89, 7.47, 7.89, 7.89, 6.64, 6.26, 4.4, 1.08, -1.08, -1.08, -1.19, -0.96, 0.0, 0.0, 0.0, -0.95, -1.84, -2.76, -2.23, -2.21, -3.58, -4.8, -5.51, -4.98, -5.26, -5.7, -5.36, -5.36, -4.92, -4.92, -4.34, -4.34, -4.34, -3.39, -2.8, -2.53, -2.53, -3.2, -2.8, -2.8, -3.2, -2.21, -1.6, -1.27, -1.19, -1.99, -1.99, -1.99, -2.16, -2.16, -2.16, -2.16, -1.14, -1.05, 0.0, 0.0, 0.0, 0.83, 0.94, 0.89, 1.84, 3.45, 4.34, 6.18, 6.32, 7.07, 7.76, 8.06, 8.29, 7.85, 7.37, 6.64, 4.92, 2.84, 2.68, -1.6, -1.99, -1.98, 4.47, 4.47, 4.74, 4.37, 4.65, 4.93, 5.08, 5.31, 5.09, 4.6, 4.34, 4.89, 7.6, 8.0, 8.01, 8.45, 8.45, 8.44, 8.24, 8.48, 6.57, 7.89, 7.89, 7.45, 7.45, 6.2, 5.7, 2.2, 0.0, 0.0, 0.0, 0.0, 0.0, -1.58, -1.84, -4.6, -5.95, -6.26, -5.26, -4.98, -4.6, -4.6, -5.4, -5.4, -5.7, -5.26, -5.36, -4.92, -4.92, -4.47, -4.47, -4.47, -4.34, -3.82, -2.21, -2.21, -3.2, -3.2, -3.2, -3.2, -3.2, -2.84, -1.27, -1.08, -2.2, -1.99, -1.99, -1.99, -3.22, -3.49, -2.76, -1.99, -1.05, 0.0, 0.0, 0.0, 0.89, 0.94, 1.55, 1.75, 1.84, 2.83, 4.34, 4.96, 5.59, 6.06, 7.03, 7.76, 8.06, 8.06, 7.85, 7.1, 5.81, 4.09, -0.0, -2.21, -2.2, -1.98, 4.47, 4.47, 4.12, 4.11, 4.65, 4.55, 4.55, 4.9, 5.09, 4.6, 4.6, 4.6, 7.6, 7.56, 8.45, 8.45, 8.45, 8.44, 8.29, 7.81, 6.88, 7.89, 7.89, 6.64, 6.64, 7.6, 5.73, 4.11, 0.96, 0.0, 0.0, 0.0, 0.0, 0.0, -1.49, -4.74, -7.15, -7.45, -5.94, -5.4, -5.4, -5.4, -5.4, -5.7, -5.26, -5.36, -5.36, -4.92, -4.92, -4.47, -3.9, -4.34, -3.72, -2.84, -2.84, -2.53, -3.2, -3.2, -3.2, -2.84, -2.84, -2.48, -1.19, -1.3, -1.99, -2.99, -2.99, -3.35, -3.35, -2.76, -2.16, -1.99, -0.96, 0.0, 0.0, 0.89, 1.01, 0.94, 0.89, 1.75, 1.58, 2.57, 3.32, 4.34, 4.5, 5.53, 6.45, 7.2, 7.2, 7.6, 7.53, 6.88, 6.26, 4.77, 1.8, 2.68, -2.2, -2.16, 4.47, 4.1, 3.84, 4.11, 4.07, 4.29, 4.55, 4.8, 4.6, 4.6, 4.6, 4.9, 7.1, 8.05, 8.45, 8.94, 8.45, 8.0, 7.37, 6.57, 7.06, 7.37, 7.45, 7.45, 6.2, 7.15, 6.71, 4.74, 1.49, 0.95, 1.96, 3.0, 4.11, 4.4, 4.92, -4.47, -5.94, -6.94, -5.73, -5.81, -5.36, -5.36, -5.36, -5.36, -5.36, -5.36, -4.92, -4.92, -4.34, -4.34, -3.72, -3.72, -3.72, -2.84, -2.84, -2.84, -2.84, -2.84, -3.35, -3.72, -2.48, -2.2, -1.99, -1.99, -2.99, -2.99, -2.99, -3.91, -3.22, -2.8, -1.98, -1.98, -0.88, 0.0, 0.96, 1.6, 1.84, 0.89, 0.0, 1.49, 2.31, 2.57, 3.32, 3.63, 3.45, 4.12, 4.74, 5.36, 6.01, 6.55, 6.6, 6.0, 5.26, 4.4, 3.72, 2.24, -2.48, -2.99, 4.08, 3.85, 3.84, 4.11, 4.07, 3.73, 4.0, 4.4, 4.4, 4.9, 4.9, 5.31, 7.54, 8.05, 8.94, 8.94, 8.44, 7.31, 6.0, 5.37, 5.75, 5.6, 6.4, 6.4, 6.94, 6.07, 5.36, 4.0, 2.6, 2.12, 1.99, 4.09, 4.92, 4.4, 0.98, -2.0, -4.98, -5.81, -5.81, -5.36, -4.77, -5.94, -5.26, -5.73, -5.26, -5.26, -4.77, -4.34, -3.72, -4.09, -3.16, -3.16, -3.16, -3.35, -3.35, -3.35, -3.35, -3.72, -3.72, -3.48, -2.95, -2.4, -2.16, -2.99, -3.22, -3.91, -3.22, -2.8, -1.84, -1.96, -1.96, -1.96, -0.95, 0.0, 0.95, 1.96, 1.96, 1.01, 0.0, 0.94, 2.83, 3.32, 3.49, 2.57, 3.49, 3.49, 4.56, 3.45, 3.99, 3.97, 4.98, 5.36, 5.2, 4.98, 4.98, 3.13, -2.48, -3.49, 4.08, 3.85, 3.49, 3.49, 3.79, 3.48, 4.0, 4.0, 4.8, 4.9, 5.08, 5.08, 7.55, 8.05, 8.94, 7.54, 6.57, 5.24, 3.91, 4.11, 4.54, 4.89, 4.89, 5.24, 6.08, 4.43, 4.11, 3.79, 4.8, 3.13, 4.02, -0.0, -0.0, -1.41, -2.76, -3.79, -4.4, -6.71, -6.71, -4.34, -4.8, -5.2, -5.94, -5.94, -6.36, -4.98, -4.29, -3.48, -3.48, -4.11, -4.11, -3.48, -3.72, -3.72, -3.82, -3.82, -3.82, -4.24, -4.4, -3.93, -3.22, -1.99, -2.16, -3.22, -3.22, -3.72, -3.0, -1.84, -1.01, -0.89, -0.89, -0.94, -0.84, 0.0, 0.0, 0.94, 1.73, 1.01, 0.84, 0.85, 2.57, 3.49, 3.49, 2.7, 3.49, 3.88, 4.56, 3.6, 2.12, 2.84, 3.39, 3.48, 4.89, 6.0, 5.73, 3.13, -2.48, -3.22, 3.42, 3.45, 3.49, 3.49, 3.48, 3.48, 3.43, 4.0, 4.55, 5.08, 4.55, 4.55, 7.15, 7.52, 7.45, 4.19, 2.99, 1.98, 1.72, 2.8, 2.99, 2.53, 2.16, 3.0, 3.0, 3.2, 3.0, 3.4, 5.06, 2.2, -3.48, -2.6, -1.98, -3.2, -3.91, -4.54, -3.93, -4.82, -6.26, -5.81, -4.92, -4.92, -5.36, -5.51, -5.21, -5.58, -4.11, -3.79, -3.22, -3.47, -3.48, -3.93, -4.4, -4.77, -4.34, -4.34, -4.34, -4.34, -4.34, -3.48, -2.95, -1.99, -2.16, -2.99, -2.99, -2.8, -1.84, -0.95, 0.0, -0.95, -0.95, -1.01, 0.0, 0.0, 0.0, 0.0, 0.94, 0.94, 0.89, 0.85, 1.52, 4.0, 4.0, 3.8, 4.0, 3.7, 4.71, 3.77, 2.23, 1.27, 1.7, 3.63, 5.6, 6.64, 5.81, 2.21, -2.48, -3.22, 3.42, 3.22, 3.49, 3.49, 2.86, 2.86, 3.48, 4.07, 4.65, 4.84, 4.29, 4.07, 6.94, 5.81, 4.74, 1.98, -0.0, -0.0, -0.0, 1.01, 1.4, -0.0, -0.0, -0.0, 0.89, 1.49, 1.49, 2.99, 3.4, -0.0, -2.6, -1.98, -0.0, -0.0, -1.98, -4.11, -5.06, -5.58, -5.94, -5.51, -4.8, -5.36, -4.92, -4.8, -4.11, -3.79, -4.74, -4.74, -4.11, -3.79, -5.21, -4.29, -4.8, -4.98, -4.98, -5.26, -4.82, -4.77, -4.4, -3.48, -2.2, -2.2, -2.2, -2.4, -1.99, -1.84, -1.03, -1.03, 0.0, 0.0, -0.96, 0.0, 0.0, 0.0, 0.0, 0.0, 0.0, 0.89, 0.94, 0.8, 0.89, 3.06, 4.6, 4.71, 4.71, 4.71, 6.01, 6.55, 4.47, 2.53, 3.35, 4.6, 5.75, 6.71, 5.36, 0.0, -2.48, -3.22, 3.42, 3.22, 3.08, 3.12, 2.86, 3.15, 3.49, 4.11, 4.71, 4.65, 4.65, 4.37, 4.11, 4.02, 5.37, 1.03, -0.0, -0.0, -0.0, -0.0, -0.0, -0.0, -0.0, -0.0, -0.0, -0.0, -0.0, 1.58, 1.49, -0.0, -1.63, -0.0, 1.4, 3.15, 1.58, -1.63, -5.06, -3.79, -4.11, -5.51, -4.02, -4.02, -3.35, -3.72, -3.48, -3.48, -4.29, -4.54, -4.89, -4.89, -4.11, -4.11, -4.54, -4.54, -5.37, -5.6, -5.4, -4.98, -4.29, -3.22, -2.4, -2.2, -1.84, -1.19, -1.05, -1.05, -1.05, -0.96, 0.0, 0.0, 0.0, -0.88, 0.0, -0.88, -0.89, 0.0, 0.0, 0.89, 0.8, 0.73, 0.77, 2.23, 4.6, 5.21, 5.3, 6.06, 7.07, 7.71, 6.71, 5.75, 5.51, 5.75, 6.71, 6.71, 5.81, 2.68, -2.84, -3.22, 3.42, 2.8, 2.82, 2.84, 2.86, 2.86, 3.78, 4.43, 4.43, 4.37, 4.11, 4.37, 4.55, 4.4, 5.36, 1.08, -0.0, -0.0, -0.0, 0.63, -0.0, -0.0, -0.0, -0.0, -0.0, -0.0, -0.0, -0.0, 1.49, 1.49, 1.73, 2.12, 3.97, 5.69, 5.69, 2.99, -1.63, -4.43, -3.72, -4.02, -3.82, -2.84, -2.23, -3.79, -4.4, -3.72, -4.29, -4.89, -4.74, -4.74, -5.06, -5.06, -4.58, -4.58, -5.37, -6.6, -6.57, -5.6, -4.65, -3.22, -3.22, -2.4, -2.2, -1.05, 0.0, -1.05, -2.2, -1.19, 0.0, 0.0, -1.27, -1.13, -0.98, -0.88, 0.0, 0.0, 0.83, 0.94, 0.89, 0.0, 0.0, 1.52, 2.9, 5.21, 6.01, 7.07, 7.6, 8.19, 7.56, 7.15, 6.71, 7.15, 6.71, 7.1, 7.08, 4.34, 0.0, -2.2, 2.75, 3.0, 2.82, 2.84, 2.84, 3.22, 4.12, 4.43, 4.43, 4.11, 4.11, 4.11, 4.07, 4.55, 3.39, 2.68, 1.79, 0.89, 0.63, 0.8, 0.89, 1.2, 0.95, 1.84, -0.0, -0.0, -0.0, -0.0, 1.3, 3.0, 4.56, 4.87, 6.01, 7.2, 7.82, 6.73, 4.83, 1.05, -2.21, -3.2, -2.23, -2.84, -3.2, -4.02, -0.0, -0.0, 3.58, -3.48, -3.47, -5.06, -4.43, -4.74, -3.91, -3.91, -4.89, -6.0, -6.57, -6.0, -4.98, -4.29, -3.22, -2.4, -1.05, 0.0, -1.03, -1.84, -2.16, -1.14, 0.0, 0.0, -1.08, -1.08, -0.88, 0.0, 0.0, 0.0, 0.95, 1.01, 0.74, 0.0, 0.0, 0.89, 2.7, 4.56, 5.21, 6.7, 7.67, 7.89, 7.71, 7.45, 7.15, 7.15, 7.11, 7.54, 7.55, 6.64, 3.58, -1.27, 2.92, 2.77, 2.82, 2.61, 3.08, 3.22, 3.84, 4.12, 4.12, 3.83, 4.11, 3.79, 3.79, 3.73, 3.88, 3.82, 2.63, 1.7, 0.95, 1.2, 1.2, 1.34, 0.89, 0.63, -0.0, -0.0, -0.63, -0.0, -0.0, 1.26, 3.79, 5.84, 7.2, 7.2, 7.15, 7.06, 6.95, 7.15, 4.4, 0.0, 0.0, 2.24, -0.0, -0.0, -0.0, -0.0, 1.98, 3.79, 4.47, 3.58, -1.79, -2.24, -2.24, -0.0, -0.0, -0.0, -4.92, -6.94, -5.51, -4.4, -3.48, -1.99, -0.96, 0.0, 0.0, -1.03, -1.72, -1.84, -0.89, -1.03, -0.96, -0.96, -0.96, 0.0, 0.0, 0.0, 0.0, 0.95, 0.78, 0.0, 0.79, 0.85, 1.52, 2.7, 4.56, 6.18, 7.06, 7.07, 7.03, 7.21, 7.11, 7.15, 7.15, 7.6, 7.6, 7.6, 5.73, 2.53, 2.73, 2.77, 2.8, 2.82, 2.82, 3.47, 4.12, 4.12, 3.84, 3.49, 3.49, 3.49, 3.2, 3.48, 3.43, 3.35, 2.68, 1.86, 1.26, 0.95, 1.2, 1.2, 0.8, 0.32, 0.0, -0.45, -0.45, 0.45, 0.0, 0.89, 2.15, 4.74, 6.98, 6.11, 6.01, 5.36, 6.32, 8.43, 7.12, 4.34, 1.6, 1.27, -0.0, -0.0, -0.0, -0.0, 1.84, 3.2, 3.0, 3.72, 3.47, 3.47, 1.98, 1.52, 3.0, 3.47, 2.12, -4.8, -6.94, -4.4, -2.48, -1.98, 0.0, 0.0, 0.0, 0.0, 0.0, 0.0, 0.0, -1.03, -0.89, 0.0, 0.0, 0.0, 0.0, 0.0, 0.0, 0.0, 0.0, 0.0, 0.94, 1.95, 1.58, 2.31, 3.7, 5.21, 5.36, 5.53, 5.77, 6.4, 6.28, 6.98, 6.66, 7.1, 7.15, 8.05, 7.6, 5.36, 2.89, 2.75, 2.8, 2.8, 3.47, 3.85, 3.85, 4.12, 3.84, 3.49, 3.22, 3.49, 3.2, 2.86, 2.84, 2.79, 2.5, 1.58, 1.26, 0.95, 1.2, 1.2, 0.8, 0.63, 0.0, 0.0, 0.45, 0.0, -0.0, 0.4, 1.49, 2.23, 5.31, 5.31, 4.0, 4.05, 5.98, 6.73, 7.28, 3.16, -0.0, -0.0, -0.0, -0.0, -0.0, -0.0, 1.4, 1.63, 1.63, 1.63, 3.47, 3.22, 1.98, 1.98, 3.72, 5.06, 3.0, -2.0, -4.92, -5.21, -1.27, 0.0, 3.58, 4.02, 4.8, 5.94, 5.94, 6.51, 5.81, 1.98, 0.0, 0.0, 0.0, 0.0, -1.01, -1.01, 0.0, 0.0, 0.0, 0.0, 1.01, 1.96, 2.26, 2.4, 3.91, 4.34, 3.8, 3.6, 3.9, 5.49, 6.21, 5.82, 5.75, 6.07, 7.1, 8.05, 6.71, 6.71, 2.89, 2.75, 2.77, 3.0, 3.45, 3.85, 4.1, 4.12, 3.47, 3.49, 3.49, 2.86, 2.86, 2.84, 2.53, 2.21, 2.15, 1.58, 1.26, 0.95, 0.95, 0.8, 1.2, 0.95, 0.4, 0.0, -0.0, -0.0, -0.0, 0.59, 1.11, 1.73, 2.18, 2.69, 2.58, 3.21, 4.2, 4.26, 3.4, -0.0, -0.0, -0.0, 1.32, 1.4, 1.32, 1.32, 1.49, 2.66, 3.2, 3.0, 2.8, 1.84, 3.22, 3.47, 4.11, 5.21, 4.74, 1.98, -2.6, -5.36, -1.9, -0.0, 1.84, 1.63, 3.2, 4.56, 4.74, 6.79, 7.89, 6.71, 2.53, -0.0, -2.68, -1.99, -1.96, -1.96, -0.95, -0.89, 0.0, 0.0, 0.95, 1.84, 2.82, 2.67, 3.4, 4.42, 3.99, 2.99, 2.82, 3.72, 5.06, 4.84, 4.84, 5.75, 6.28, 6.98, 6.98, 6.98, 2.86, 2.73, 2.96, 2.77, 3.45, 4.1, 3.85, 4.12, 3.22, 3.22, 2.86, 2.86, 2.58, 2.53, 2.53, 2.21, 2.21, 1.9, 1.24, 1.26, 0.6, 0.8, 1.7, 2.68, 1.86, 0.32, -0.0, -0.0, -0.0, -0.0, 1.14, 1.04, 1.04, 1.26, 0.77, 0.81, -0.0, -0.0, -0.0, -0.0, -0.0, -0.0, 1.4, 1.73, 1.4, 2.69, 3.15, 4.14, 4.56, 3.2, 3.0, 3.0, 3.0, 4.74, 4.74, 6.0, 6.0, 5.72, 3.0, -0.0, -0.0, -0.0, 1.52, 1.52, 2.8, 2.76, 5.06, 5.95, 6.51, 5.81, 3.58, -0.0, -1.03, -3.58, -3.2, -2.99, -2.82, -1.84, -0.89, 0.0, 1.01, 1.84, 2.67, 2.26, 3.4, 4.42, 4.87, 3.0, 3.0, 4.19, 3.63, 3.35, 4.11, 4.84, 5.58, 5.82, 6.7, 6.7, 2.86, 2.89, 2.92, 3.42, 3.42, 4.1, 3.85, 3.47, 3.22, 2.84, 2.86, 2.86, 2.84, 2.53, 2.79, 2.21, 1.88, 1.61, 1.61, 1.2, 0.6, 0.89, 1.7, 3.09, 1.86, -0.0, -0.0, -0.0, -0.0, -0.0, 1.12, 1.12, 0.57, -0.0, -0.0, -0.0, -0.85, -0.0, -0.0, -0.0, -0.0, -0.0, 1.49, 1.32, 2.69, 3.8, 5.31, 6.01, 5.69, 4.29, 3.2, 3.2, 4.56, 4.56, 5.37, 6.08, 6.08, 6.9, 6.63, 4.56, 1.84, -0.0, -0.0, 2.4, 1.84, 2.2, 4.29, 5.58, 6.07, 6.07, 3.48, 0.96, 1.03, -0.0, -3.49, -3.6, -3.6, -2.67, -0.94, 0.0, 0.84, 1.84, 1.84, 2.31, 3.6, 4.68, 5.24, 4.58, 3.72, 3.91, 2.99, 2.16, 2.4, 3.63, 4.89, 4.89, 5.21, 5.21, 2.83, 2.86, 2.92, 3.4, 3.42, 4.1, 3.85, 3.47, 3.08, 2.84, 2.86, 2.86, 2.84, 2.84, 2.79, 3.16, 0.6, 0.99, 1.9, 1.2, 0.0, -0.0, 0.53, 1.6, -0.0, -1.84, -0.51, -0.0, -0.0, 0.58, 0.57, 0.57, 0.57, -0.0, -0.0, -0.58, -0.59, -0.61, -0.0, -0.0, -0.0, 0.95, 1.49, 2.54, 4.0, 5.59, 6.63, 6.63, 4.56, 2.66, 1.4, 2.82, 3.91, 4.14, 5.31, 6.01, 6.63, 6.32, 7.56, 8.4, 5.58, 2.2, 3.16, 2.53, 2.23, 2.48, 3.93, 4.98, 5.73, 6.8, 7.06, 5.58, 4.89, 2.4, -1.6, -2.99, -2.83, -1.75, -0.89, 0.0, 1.84, 1.75, 1.84, 2.23, 2.83, 3.45, 4.68, 4.65, 3.72, 3.63, 2.99, 0.96, 1.03, 2.6, 3.91, 4.43, 3.91, 3.91, 2.97, 2.86, 3.37, 3.4, 3.42, 3.84, 3.85, 3.47, 3.08, 2.61, 2.44, 2.48, 2.23, 2.84, 3.35, 2.17, 1.2, 1.6, 3.82, 2.68, -1.4, -1.13, -0.0, -0.96, -1.84, -1.05, -0.96, -0.0, -0.0, 0.54, -0.0, -0.0, -0.0, -0.0, -0.0, -0.0, -0.0, -0.0, -0.0, -0.0, 0.57, 1.08, 1.19, 1.84, 2.8, 5.31, 6.63, 5.37, 2.66, 1.49, 1.49, 2.99, 2.99, 4.37, 4.42, 5.24, 6.64, 6.32, 8.43, 9.63, 7.45, 4.92, 3.16, 3.48, 2.23, 2.48, 3.93, 4.98, 5.51, 6.17, 6.45, 6.88, 6.45, 4.4, 0.0, -1.03, -1.96, -0.89, 0.0, 0.84, 1.0, 0.89, 0.85, 0.89, 1.84, 2.4, 3.2, 3.9, 4.01, 4.11, 4.43, 2.16, 0.0, 0.96, 3.35, 3.91, 3.22, 3.22, 3.3, 3.52, 3.56, 3.6, 3.4, 3.42, 3.45, 3.47, 2.82, 2.61, 2.44, 2.22, 2.48, 2.84, 3.35, 2.91, 2.17, 2.17, 2.17, 1.13, -2.0, -1.0, -0.61, -1.16, -1.16, -0.61, -0.51, -0.0, -0.0, -0.0, -0.0, -0.0, -0.0, -0.0, -0.0, -0.0, -0.0, -0.0, -0.0, -0.0, 0.57, 0.55, 0.54, 1.14, 1.76, 4.96, 5.69, 2.66, -0.0, -0.0, 1.32, 2.54, 2.99, 4.14, 4.37, 4.42, 6.01, 7.02, 9.6, 9.76, 7.6, 4.92, 4.02, 3.48, 2.23, 2.23, 3.72, 4.98, 5.51, 5.94, 6.45, 6.71, 5.94, 4.4, 0.0, 0.0, 0.0, 0.0, 0.0, 0.0, 0.95, 0.0, 0.0, 0.0, 0.89, 1.95, 2.67, 3.0, 3.9, 4.43, 5.24, 3.22, 0.0, 0.0, 2.76, 3.35, 3.35, 3.35, 3.45, 3.32, 3.35, 3.37, 3.4, 3.42, 3.45, 3.47, 2.82, 2.84, 2.44, 2.22, 2.22, 2.86, 2.84, 2.79, 2.91, 2.63, 2.24, 1.26, -0.0, -0.6, -0.57, -1.24, -1.0, -0.65, -0.53, -0.61, -0.59, -0.57, -0.55, -0.61, -0.54, -0.54, -0.54, -0.0, -0.0, -0.0, -0.0, -0.0, -0.0, -0.0, -0.0, -0.0, 1.12, 3.0, 2.82, -0.0, -0.0, -0.0, 1.32, 2.54, 2.99, 4.14, 4.14, 4.37, 5.53, 7.06, 9.04, 8.94, 5.51, 3.35, 3.13, 3.2, 2.23, 2.48, 3.72, 4.4, 4.98, 6.51, 6.51, 7.15, 2.2, 0.0, 0.0, 0.0, 1.4, 2.97, 3.39, 2.98, 2.48, 0.0, 0.0, 0.0, 0.0, 0.94, 1.84, 2.67, 3.2, 3.9, 4.81, 4.19, 1.8, 0.0, 1.83, 3.35, 3.91, 3.91, 3.45, 3.45, 3.49, 3.56, 3.4, 3.42, 3.45, 3.22, 2.82, 2.4, 2.2, 2.44, 2.22, 2.48, 2.84, 3.14, 2.79, 2.5, 2.12, 0.45, -0.0, -0.0, -0.6, -0.99, -1.24, -1.2, -1.2, -1.16, -1.13, -1.13, -1.11, -1.23, -1.08, -0.61, -0.61, -0.61, -0.0, -0.0, -0.0, -0.0, -0.0, -0.0, -0.0, -0.0, -0.0, 0.57, -0.0, -0.0, -0.0, -0.0, 1.32, 2.54, 2.99, 2.99, 2.99, 4.14, 4.68, 6.32, 8.4, 6.71, 4.29, 2.23, 2.68, 1.6, 1.08, 2.2, 3.48, 3.93, 4.8, 4.98, 5.64, 4.02, -4.74, -4.74, -1.7, 0.0, 1.2, 3.39, 4.02, 4.38, 4.47, 2.48, 0.0, 0.0, 0.0, 0.89, 1.95, 1.84, 2.67, 1.96, 4.01, 4.19, 3.16, 0.98, 0.88, 3.35, 4.11, 4.11, 3.45, 3.45, 3.49, 3.52, 3.6, 3.64, 3.42, 3.22, 2.82, 2.4, 2.2, 2.2, 2.44, 2.22, 2.86, 2.84, 2.79, 2.21, 1.86, 0.45, 0.45, -0.63, -0.6, -0.99, -1.24, -1.2, -1.61, -1.61, -1.84, -1.6, -1.8, -1.58, -1.23, -1.23, -1.08, -0.55, -0.55, -0.0, -0.0, -0.0, -0.0, -0.0, -0.0, -0.55, -1.07, -0.59, -0.0, -0.0, -0.0, -0.0, 1.4, 2.54, 2.99, 2.99, 2.99, 4.14, 4.58, 5.24, 6.32, 5.94, 1.6, 0.0, -0.0, -0.0, 1.05, 1.99, 3.22, 4.74, 4.6, 5.7, 6.26, -4.92, -6.21, -3.91, 0.0, 0.0, 2.4, 4.8, 5.36, 4.02, 4.66, 4.47, 0.88, 0.0, 0.0, 0.0, 0.94, 1.96, 1.84, 0.95, 2.12, 3.35, 2.68, 1.8, 2.0, 3.35, 4.11, 4.11, 3.45, 3.45, 3.45, 3.49, 3.8, 3.81, 3.42, 3.45, 3.04, 2.61, 2.4, 2.2, 2.2, 2.44, 2.22, 2.23, 2.51, 2.21, 1.24, 0.0, 0.0, -0.63, -0.95, -1.26, -1.86, -1.58, -1.61, -1.88, -1.61, -1.84, -1.6, -1.8, -1.8, -1.11, -1.23, -1.23, -0.63, -0.55, -0.0, -0.0, -0.0, 0.57, -0.0, -0.57, -1.76, -1.73, -1.19, -0.61, -0.0, 0.54, 1.7, 2.54, 2.99, 2.54, 2.99, 4.14, 4.83, 3.72, 4.83, 3.2, 3.79, 1.4, -0.0, -0.0, 1.05, 2.16, 2.99, 4.43, 5.37, 6.26, 6.71, 3.13, -5.95, -3.72, -0.96, 0.0, 0.88, 2.48, 4.4, 3.58, 4.02, 4.38, 2.53, 0.0, 0.0, 0.0, 0.95, 0.89, 1.03, 0.82, 0.0, 1.6, 2.76, 2.2, 2.68, 3.79, 4.11, 4.11, 3.42, 3.42, 3.45, 3.97, 4.0, 4.03, 4.05, 3.45, 2.8, 2.82, 2.18, 2.4, 2.2, 2.2, 2.44, 2.22, 2.23, 1.84, 1.0, 0.0, -0.45, -0.89, -1.2, -1.7, -1.86, -1.86, -1.9, -1.61, -1.88, -1.84, -1.84, -1.6, -1.8, -1.8, -1.11, -1.11, -1.11, -0.57, -0.57, -0.0, -0.0, 0.57, 0.59, -0.51, -1.8, -2.22, -1.76, -0.55, -0.0, 0.55, 1.19, 1.88, 2.54, 2.69, 3.8, 4.37, 4.14, 2.82, 2.82, 4.37, 5.69, 5.06, 2.2, 0.96, 1.05, 1.98, 3.22, 4.19, 5.51, 6.26, 6.71, 6.26, -1.13, -1.98, 0.0, 0.0, 0.82, 1.83, 1.27, 2.53, 3.13, 2.98, 2.68, 0.0, 0.0, 0.0, 0.0, 0.0, 0.0, 0.0, 1.03, 0.78, 0.82, 1.7, 2.53, 2.99, 4.11, 4.11, 3.91, 3.91, 3.94, 3.97, 4.0, 4.03, 4.05, 4.08, 3.22, 2.82, 2.82, 2.18, 2.4, 2.4, 2.2, 2.22, 2.23, 1.84, 1.2, 0.0, -0.63, -1.34, -1.34, -1.7, -2.12, -1.86, -2.15, -2.15, -2.21, -2.53, -2.23, -2.23, -2.23, -1.8, -1.8, -1.8, -1.27, -1.27, -0.66, -0.57, -0.0, 0.63, 1.8, -0.0, -1.88, -2.86, -2.22, -1.08, -0.0, 0.55, 1.19, 1.73, 1.73, 2.4, 3.77, 4.42, 4.14, 2.82, 2.82, 4.58, 6.01, 5.15, 4.74, 0.96, 1.4, 2.8, 3.72, 5.58, 5.94, 6.2, 6.71, 6.26, 2.84, 0.0, 0.0, 0.0, 0.0, 0.0, 0.0, 0.0, -0.0, -0.88, -0.0, 2.68, 1.13, 0.98, 0.0, 0.0, 0.0, 0.0, 0.82, 0.82, 0.0, 0.89, 1.7, 2.4, 3.63, 3.63, 3.91, 3.91, 3.94, 3.97, 4.0, 3.8, 3.81, 3.83, 3.42, 2.8, 2.82, 2.36, 2.18, 2.18, 2.4, 2.2, 1.76, 1.8, 1.16, 0.0, -0.95, -1.34, -1.34, -1.79, -2.17, -2.17, -2.4, -2.4, -2.5, -2.21, -2.53, -2.23, -2.23, -2.23, -1.8, -1.8, -1.27, -1.13, -0.59, -0.59, -0.0, -0.0, 1.23, 1.4, -0.0, -2.91, -3.43, -1.73, -0.0, 0.55, 1.73, 1.73, 1.73, 1.73, 2.4, 3.55, 4.14, 2.82, 3.55, 4.42, 5.84, 5.58, 3.91, 2.64, 2.82, 4.14, 5.49, 6.0, 6.88, 7.15, 7.15, 7.1, 5.26, 2.21, 2.24, 2.21, 0.0, -1.01, -1.03, -1.27, -4.4, -2.2, -0.55, 1.6, 2.84, 3.39, 2.68, 1.41, 0.0, 0.0, 1.03, 1.03, 0.0, 0.0, 0.82, 1.84, 3.22, 3.22, 4.08, 4.08, 4.12, 4.16, 3.97, 4.0, 4.03, 4.05, 3.64, 3.42, 2.8, 2.82, 2.36, 2.36, 2.18, 2.4, 1.73, 1.76, 0.59, 0.0, -0.6, -1.2, -1.79, -1.79, -2.24, -2.68, -3.13, -3.07, -2.68, -2.68, -2.53, -2.53, -2.23, -2.51, -2.23, -1.8, -1.6, -1.13, -1.13, -0.59, -0.59, -0.57, -0.0, 1.03, 1.05, -0.57, -2.51, -1.84, -0.0, 1.19, 1.73, 1.73, 1.73, 1.73, 1.94, 2.2, 2.82, 4.14, 3.77, 4.42, 4.58, 4.74, 4.58, 3.99, 4.68, 5.84, 5.95, 6.57, 7.1, 7.15, 7.54, 7.1, 5.26, -0.0, -1.14, -0.96, -0.0, -2.48, -3.0, -3.22, -5.26, -2.22, -0.98, -0.0, 2.47, 3.63, 4.19, 4.77, 2.84, 1.19, 1.05, 1.05, 0.0, 0.0, 0.0, 1.6, 2.6, 2.6, 4.57, 4.57, 4.6, 4.4, 4.42, 4.0, 4.03, 4.05, 3.83, 3.42, 3.45, 2.8, 2.8, 2.36, 2.36, 2.18, 2.4, 1.73, 1.11, 0.0, -0.57, -1.26, -1.86, -2.4, -2.63, -3.07, -3.13, -3.58, -3.53, -3.07, -2.79, -2.53, -2.23, -2.51, -2.23, -1.84, -1.84, -1.33, -1.16, -1.16, -0.59, -1.11, -1.19, -0.0, 0.59, -0.0, -0.96, -0.53, -0.0, 1.19, 1.19, 1.19, 1.73, 1.73, 1.73, 1.94, 2.44, 2.84, 3.77, 4.42, 4.58, 5.06, 5.37, 5.24, 5.84, 5.49, 5.58, 7.06, 6.45, 6.71, 6.88, 7.1, 4.92, -1.08, -3.72, -1.84, -0.0, -0.0, -2.84, -4.43, -5.73, -2.15, -0.99, -0.0, 0.59, 3.22, 4.01, 4.81, 5.09, 3.58, 1.98, 2.48, 0.98, 0.0, 0.0, 0.82, 2.29, 2.29, 4.57, 4.57, 4.6, 4.6, 4.63, 4.66, 4.69, 4.03, 4.05, 4.08, 3.42, 3.45, 2.8, 2.8, 2.16, 2.36, 2.18, 1.7, 1.23, 0.0, -0.71, -0.71, -1.24, -1.58, -2.12, -1.79, -1.79, -2.68, -3.58, -3.82, -2.79, -2.53, -2.53, -2.23, -2.23, -2.23, -1.84, -1.84, -1.16, -0.61, -0.61, -1.27, -1.23, -1.19, -0.54, -0.0, -0.0, -0.0, 0.61, 1.19, 1.19, 1.19, 1.19, 1.73, 1.73, 1.73, 2.2, 2.2, 2.4, 3.55, 4.58, 5.37, 6.11, 6.18, 6.6, 6.57, 5.94, 5.6, 6.07, 6.71, 5.81, 5.73, 4.98, 1.27, -4.29, -4.43, -1.03, 0.95, -0.0, -4.98, -5.59, -4.92, -1.58, -0.53, -0.0, 1.61, 2.84, 5.15, 5.75, 5.29, 4.02, 2.97, 0.99, 0.0, 0.0, 0.0, 1.6, 1.6, 4.57, 4.57, 4.8, 4.6, 4.63, 4.66, 4.44, 4.45, 4.05, 3.83, 3.84, 3.42, 3.45, 2.8, 2.8, 2.16, 2.36, 1.7, 1.19, 0.57, 0.0, -0.65, -0.54, -0.99, -0.89, -0.63, -0.0, -0.95, -4.34, -3.82, -3.07, -2.79, -2.79, -2.23, -2.23, -2.23, -1.84, -1.84, -1.16, -0.61, -0.61, -1.13, -1.8, -1.76, -1.76, -1.23, -0.0, -0.0, 0.55, 0.55, 0.55, 1.08, 1.19, 1.19, 1.73, 1.88, 2.4, 2.4, 2.2, 2.84, 5.37, 6.11, 6.99, 6.4, 6.57, 6.88, 6.64, 6.58, 6.07, 6.4, 5.58, 5.49, 6.0, 3.16, -2.84, -5.94, -2.95, -0.0, -1.99, -5.36, -6.02, -5.09, -4.02, -0.95, -0.0, 1.0, 2.21, 3.6, 6.64, 4.92, 4.02, 3.58, 2.97, 0.0, 0.0, 0.0, 1.6, 1.6, 5.02, 5.02, 5.26, 5.04, 5.29, 5.06, 4.66, 4.69, 4.71, 4.05, 4.08, 3.84, 3.42, 3.21, 3.0, 2.8, 2.16, 2.16, 1.7, 1.08, 0.0, 0.0, 0.0, -0.6, -0.89, -0.6, -0.57, -1.0, -1.61, -4.4, -3.07, -2.79, -2.79, -2.23, -2.23, -2.23, -1.84, -1.84, -1.16, -0.61, -0.0, -0.0, -1.33, -2.23, -2.0, -1.27, -0.57, -0.0, -0.0, 0.55, 0.55, 0.55, 1.19, 1.19, 1.73, 1.73, 2.2, 2.4, 2.4, 3.12, 4.11, 6.18, 7.28, 6.21, 6.57, 6.45, 6.64, 6.2, 7.45, 7.47, 6.18, 6.55, 6.57, 4.0, -2.84, -6.45, -4.98, -3.48, -4.19, -5.75, -5.75, -4.8, -3.58, -2.97, -0.45, 0.6, 2.0, 3.53, 6.26, 4.77, 3.72, 2.97, 3.13, 2.21, 0.0, 0.0, 0.88, 0.88, 5.23, 5.23, 5.26, 5.26, 5.29, 5.06, 5.08, 4.69, 4.45, 4.46, 4.05, 4.08, 4.08, 3.84, 3.21, 3.0, 3.0, 2.8, 2.16, 1.55, 0.57, 0.0, 0.0, 0.0, -0.89, -1.2, -1.49, -2.15, -2.5, -2.68, -2.68, -3.07, -2.79, -2.53, -2.51, -2.23, -1.84, -1.84, -1.33, -0.61, -0.0, -0.0, -0.53, -1.84, -2.48, -1.76, -0.57, -0.0, -0.0, 0.63, 0.63, 1.08, 1.08, 1.19, 1.73, 1.73, 2.2, 2.44, 2.84, 3.12, 6.01, 5.69, 6.28, 6.9, 6.16, 6.16, 6.0, 6.0, 6.8, 7.06, 6.6, 7.67, 7.47, 4.8, -2.48, -6.64, -6.26, -5.81, -5.29, -5.29, -4.92, -4.57, -3.48, -3.16, -2.4, 0.45, 2.24, 3.13, 5.51, 3.93, 2.48, 1.8, 2.8, 2.8, 1.13, 0.0, 0.0, 0.0, 5.23, 5.23, 5.26, 5.26, 5.04, 5.06, 5.32, 5.08, 4.69, 4.45, 4.46, 4.05, 4.08, 4.08, 4.08, 3.42, 2.96, 3.0, 2.8, 2.36, 1.19, 0.57, 0.0, 0.0, -0.95, -1.34, -1.79, -2.17, -2.4, -2.4, -2.5, -2.68, -2.79, -2.53, -2.51, -2.51, -1.6, -1.6, -1.13, -0.59, -0.0, 0.59, -0.0, -1.61, -2.58, -2.22, -1.11, -0.0, -0.0, 0.57, 0.63, 1.23, 1.23, 1.76, 1.76, 1.94, 2.44, 2.44, 2.86, 3.49, 3.79, 6.63, 6.63, 6.9, 6.9, 7.47, 6.16, 6.57, 6.0, 6.57, 6.16, 7.47, 7.89, 5.6, -0.0, -5.81, -6.64, -6.71, -6.26, -5.81, -4.47, -3.6, -3.58, -3.58, -2.84, 0.0, 1.86, 4.98, 4.54, 3.79, 2.2, 1.08, 0.0, 1.4, 2.21, 0.98, 0.0, 0.0, 5.23, 5.23, 5.69, 5.69, 5.45, 5.29, 5.06, 5.08, 5.09, 4.69, 4.71, 4.46, 4.46, 4.46, 4.73, 4.08, 3.42, 3.42, 3.0, 2.32, 1.7, 1.08, 0.59, 0.0, -0.57, -1.2, -1.79, -1.79, -2.17, -2.6, -2.4, -2.5, -2.79, -2.79, -2.51, -2.51, -1.8, -1.6, -1.13, -0.59, -0.0, 0.57, 0.59, -0.71, -2.84, -2.48, -1.11, -0.0, -0.0, 0.57, 1.23, 1.23, 1.23, 1.76, 1.76, 2.22, 2.22, 2.86, 2.86, 3.79, 4.07, 4.37, 7.6, 7.12, 7.12, 8.06, 6.57, 6.7, 6.57, 6.57, 7.47, 6.0, 8.06, 6.45, 2.53, -3.82, -5.36, -5.81, -6.26, -4.92, -3.9, -3.35, -2.84, -3.58, -2.0, 0.0, 2.95, 4.54, 4.54, 3.79, 3.22, 0.0, 0.0, 0.0, 1.13, 1.13, 0.96, 0.96, 5.67, 5.67, 5.92, 5.69, 5.69, 5.7, 5.06, 5.32, 5.08, 5.09, 4.45, 4.71, 4.71, 4.46, 4.46, 4.46, 3.83, 3.64, 3.42, 3.0, 2.16, 1.7, 1.23, 0.51, 0.0, -0.57, -1.2, -1.79, -1.79, -2.17, -2.4, -2.5, -2.21, -2.53, -2.23, -2.51, -2.23, -1.8, -1.13, -0.66, -0.57, -0.0, 1.08, -0.0, -1.84, -2.23, -1.23, -0.0, -0.0, 0.57, 1.23, 1.23, 1.23, 1.76, 1.76, 2.22, 2.22, 2.6, 3.48, 3.48, 4.07, 4.41, 7.6, 6.8, 7.53, 8.06, 6.94, 7.1, 6.64, 6.45, 6.0, 6.16, 7.89, 7.6, -0.0, -3.72, -3.48, -5.2, -5.81, -4.82, -3.6, -2.98, -2.84, -2.68, -1.66, 0.0, 2.53, 4.54, 5.6, 4.98, 3.79, 1.19, 0.0, 0.0, 0.0, 0.98, 2.0, 0.88, 5.67, 5.67, 5.92, 5.69, 5.69, 5.7, 5.7, 5.32, 5.08, 5.34, 5.09, 5.09, 5.1, 5.1, 5.1, 4.46, 4.46, 3.83, 3.64, 3.42, 3.0, 2.36, 1.73, 1.11, 0.0, 0.0, -0.8, -1.2, -1.34, -1.7, -1.86, -2.15, -2.5, -2.21, -2.23, -2.23, -2.23, -1.8, -1.27, -1.27, -0.57, -0.0, -0.0, 1.03, -0.0, -1.8, -1.23, -0.0, -0.0, 0.57, 1.11, 1.11, 1.23, 1.76, 1.76, 2.22, 2.48, 2.86, 3.48, 3.48, 3.79, 4.07, 6.63, 6.6, 7.12, 8.38, 7.94, 6.45, 6.45, 5.94, 5.6, 6.94, 7.45, 6.26, 2.24, -5.26, -5.4, -5.4, -4.92, -4.38, -2.84, -2.84, -2.84, -2.41, -0.88, 0.0, 2.53, 4.54, 5.6, 5.94, 4.98, 2.73, 0.0, -1.19, 0.0, 0.0, 1.66, 2.0, 5.67, 5.67, 5.92, 5.69, 5.69, 5.95, 5.7, 5.46, 5.32, 5.08, 5.08, 5.09, 5.09, 5.36, 5.1, 5.1, 5.1, 4.71, 4.05, 4.08, 3.42, 3.45, 2.36, 1.73, 0.57, 0.0, 0.0, -0.6, -1.34, -1.34, -1.7, -1.86, -1.9, -1.88, -1.61, -1.84, -1.84, -1.6, -1.13, -1.13, -0.59, -0.57, -0.0, 0.61, 1.03, -0.0, -0.55, -0.0, -0.0, 0.57, 1.11, 1.11, 1.58, 1.58, 2.0, 2.48, 2.48, 2.86, 3.15, 3.48, 3.48, 4.07, 4.93, 7.6, 7.63, 7.63, 6.57, 6.57, 6.0, 5.37, 5.6, 6.17, 7.6, 7.6, 4.92, -5.36, -6.71, -6.26, -5.36, -3.9, -3.35, -2.84, -2.84, -2.23, -0.98, 0.0, 1.83, 3.63, 4.89, 5.2, 5.4, 3.48, 0.0, -1.08, -1.08, 0.0, 0.88, 1.66, 5.67, 5.67, 6.33, 6.33, 6.08, 5.95, 5.7, 5.7, 5.72, 5.72, 5.08, 5.34, 5.09, 5.09, 5.36, 5.1, 5.1, 5.1, 4.46, 4.05, 4.08, 3.84, 3.45, 2.36, 1.57, 0.59, 0.0, 0.0, -0.63, -0.89, -1.2, -1.26, -1.24, -1.61, -1.88, -1.61, -1.84, -1.6, -1.13, -1.13, -0.59, -0.59, -0.0, -0.0, -0.0, -0.0, -0.0, -0.0, 0.57, 0.57, 1.11, 1.11, 1.58, 1.8, 1.8, 2.23, 2.48, 2.86, 2.86, 3.48, 3.48, 3.79, 6.63, 6.28, 6.28, 6.28, 6.6, 6.9, 5.24, 4.89, 5.94, 6.2, 7.6, 7.45, 6.94, -0.0, -5.81, -6.71, -5.36, -4.34, -3.35, -3.58, -3.58, -2.23, 0.0, 0.88, 1.84, 3.91, 4.11, 4.98, 5.4, 4.4, 0.0, -1.41, -1.08, 0.0, 1.05, 1.05, 6.07, 6.07, 6.33, 6.33, 6.08, 6.34, 6.08, 5.7, 5.98, 5.72, 5.72, 5.46, 5.72, 5.72, 5.72, 5.72, 5.36, 5.1, 5.1, 4.71, 4.46, 4.47, 3.84, 3.45, 2.18, 1.76, 1.13, 0.54, 0.0, 0.45, -0.89, -0.95, -0.57, -1.24, -1.2, -1.16, -1.16, -1.16, -1.13, -0.59, -0.59, -0.0, -0.0, -0.0, -0.0, -0.0, -0.0, 0.57, 0.57, 1.11, 1.11, 1.27, 1.8, 1.8, 1.8, 2.23, 2.48, 2.86, 2.86, 3.48, 3.48, 3.48, 4.07, 6.63, 6.63, 6.01, 5.69, 6.08, 4.74, 5.58, 5.94, 6.2, 7.6, 6.64, 7.47, 6.08, -0.0, -5.36, -5.94, -4.8, -3.6, -3.22, -3.58, -1.8, 0.0, 1.05, 2.6, 2.99, 4.11, 4.29, 4.98, 4.0, 1.6, -1.27, 0.0, 0.96, 0.96, 0.96, 6.31, 6.31, 6.33, 6.33, 6.33, 6.34, 6.34, 6.34, 6.08, 5.72, 5.72, 5.72, 5.72, 5.72, 5.72, 5.72, 5.72, 5.72, 5.36, 5.1, 4.71, 4.46, 4.47, 4.1, 3.47, 2.84, 2.22, 1.16, 0.71, 0.0, 0.0, -0.0, -0.0, -0.0, -0.54, -0.65, -0.53, -0.61, -0.61, -0.51, -0.0, -0.0, -0.0, -0.0, -0.0, -0.0, -0.0, 0.57, 1.11, 1.27, 1.27, 1.27, 1.8, 1.8, 2.23, 2.23, 2.23, 2.86, 2.86, 2.86, 3.48, 3.48, 3.48, 5.69, 6.01, 6.63, 6.63, 5.69, 5.58, 6.0, 6.64, 6.71, 7.15, 7.1, 6.88, 6.6, 5.06, -0.0, -4.98, -4.98, -4.4, -3.6, -2.84, -1.8, 0.0, 1.66, 3.22, 3.79, 3.79, 3.93, 4.4, 4.34, 2.21, -1.27, 0.0, 1.19, 1.19, 1.19, 6.31, 6.31, 6.33, 6.33, 6.33, 6.34, 6.34, 6.34, 6.08, 5.98, 5.72, 5.72, 5.72, 5.72, 5.72, 5.72, 6.01, 5.72, 5.72, 5.36, 5.36, 5.1, 5.1, 4.47, 4.47, 3.84, 2.84, 2.48, 1.88, 1.58, 0.63, 0.45, -0.0, -0.0, -0.0, -0.0, -0.0, -0.0, -0.0, -0.0, -0.0, -0.0, -0.0, -0.0, -0.0, -0.0, -0.0, 0.57, 1.11, 1.27, 1.27, 1.8, 1.8, 1.8, 2.23, 2.23, 2.23, 3.16, 3.16, 3.16, 3.43, 3.78, 3.78, 4.07, 6.63, 6.63, 7.6, 7.12, 6.6, 6.88, 7.89, 6.71, 7.15, 7.1, 6.57, 6.21, 6.6, 4.89, 2.24, -4.29, -4.65, -3.58, -2.68, -2.0, 0.0, 0.98, 3.16, 4.29, 4.98, 4.4, 4.8, 3.58, 1.9, 0.0, 0.0, 1.19, 1.19, 1.19, 6.31, 6.31, 6.33, 6.33, 6.33, 6.61, 6.34, 6.34, 6.34, 6.35, 5.98, 5.72, 5.72, 6.0, 5.72, 6.06, 6.06, 6.01, 6.01, 5.72, 5.72, 5.72, 5.1, 5.1, 5.38, 4.47, 3.84, 3.49, 3.16, 2.5, 1.86, 1.34, 1.2, 0.6, 0.57, 0.71, -0.0, -0.0, -0.0, -0.0, -0.0, -0.0, 0.61, 0.59, -0.0, -0.0, -0.0, 0.57, 1.27, 1.8, 1.8, 1.8, 1.8, 1.8, 2.23, 2.51, 2.84, 3.16, 3.16, 3.16, 3.43, 3.78, 3.78, 4.0, 4.65, 8.0, 8.06, 7.37, 7.37, 7.37, 7.54, 7.54, 6.94, 6.94, 6.57, 6.57, 6.99, 6.8, 4.8, -1.6, -4.11, -3.49, -3.22, -2.0, 0.0, 0.0, 2.23, 4.0, 5.26, 5.51, 4.92, 3.58, 3.58, 1.6, 0.0, 1.19, 1.19, 1.19, 6.31, 6.31, 6.58, 6.33, 6.33, 6.98, 6.98, 6.7, 6.34, 6.08, 6.35, 5.98, 5.72, 5.72, 6.35, 6.35, 6.06, 6.34, 6.34, 6.34, 5.72, 5.72, 5.72, 5.71, 5.41, 5.08, 5.06, 4.43, 4.07, 3.72, 2.91, 2.6, 2.24, 2.12, 1.86, 1.24, 0.54, 0.65, 0.53, 0.61, 0.61, 0.61, 0.61, 0.59, 0.59, 0.57, -0.0, 0.57, 1.27, 1.8, 1.8, 1.8, 1.8, 2.23, 2.51, 2.84, 2.84, 3.16, 3.16, 3.16, 3.43, 3.78, 3.78, 4.0, 4.65, 8.0, 8.06, 7.47, 7.47, 6.99, 7.37, 7.37, 7.37, 6.94, 6.94, 6.88, 6.57, 7.12, 6.99, 4.47, -1.41, -4.11, -4.11, -2.0, -0.98, 0.0, 0.98, 2.84, 4.4, 4.02, 3.58, 3.82, 3.6, 2.53, 1.27, 2.0, 2.0, 2.0, 6.31, 6.31, 6.58, 6.71, 6.71, 6.71, 6.98, 6.7, 6.7, 6.34, 6.35, 6.35, 6.08, 6.08, 6.35, 6.35, 6.35, 6.06, 6.34, 6.34, 6.34, 6.34, 6.04, 6.01, 5.71, 5.69, 5.65, 5.35, 4.71, 4.55, 4.11, 3.53, 3.13, 2.68, 2.6, 2.4, 1.9, 1.2, 1.2, 1.16, 1.16, 1.16, 1.16, 1.13, 1.13, 0.57, 0.57, 0.57, 1.27, 1.8, 1.8, 1.8, 1.8, 2.23, 2.84, 2.84, 3.16, 3.16, 3.16, 3.16, 3.43, 3.43, 3.78, 3.78, 4.07, 7.28, 6.63, 6.63, 7.28, 6.6, 7.53, 7.12, 7.37, 6.94, 6.88, 6.88, 6.99, 7.12, 7.2, 6.88, 3.6, -3.22, -4.74, -2.53, -0.88, 0.0, 0.0, 2.23, 3.35, 3.39, 4.02, 4.24, 3.82, 2.84, 2.84, 2.48, 2.48, 2.48, 6.31, 6.31, 6.97, 6.97, 6.71, 6.71, 6.98, 6.98, 6.7, 6.7, 6.63, 6.35, 6.35, 6.08, 6.08, 6.35, 6.35, 6.35, 6.34, 6.34, 6.34, 6.34, 6.34, 6.32, 6.32, 6.28, 5.98, 5.93, 5.49, 5.08, 4.8, 4.3, 4.02, 3.58, 3.09, 2.91, 2.4, 1.9, 1.61, 1.88, 1.4, 1.16, 1.16, 1.84, 1.13, 1.11, 0.57, 0.57, 1.27, 1.8, 2.23, 2.23, 2.51, 2.51, 2.84, 2.84, 3.16, 3.16, 3.16, 3.16, 3.43, 3.43, 3.43, 3.43, 4.0, 5.49, 6.11, 6.45, 6.82, 7.2, 7.12, 7.54, 7.54, 7.1, 7.1, 7.37, 7.12, 7.2, 7.2, 7.53, 5.81, 0.0, -3.22, -3.22, -1.99, -0.98, 1.13, 2.84, 1.98, 1.98, 2.98, 4.24, 3.82, 3.6, 2.84, 2.48, 2.48, 2.48, 6.31, 6.58, 6.97, 6.97, 6.71, 6.98, 6.98, 6.98, 6.7, 6.7, 6.7, 6.35, 6.35, 6.35, 6.08, 6.35, 6.35, 6.35, 6.95, 6.95, 6.64, 6.34, 6.64, 6.32, 6.32, 6.28, 6.57, 6.51, 5.86, 5.75, 5.31, 5.09, 4.44, 4.02, 4.02, 3.53, 2.91, 2.5, 2.5, 1.88, 1.88, 1.88, 1.88, 1.84, 1.6, 1.27, 0.59, 1.13, 1.8, 2.23, 2.51, 2.51, 2.51, 2.84, 2.84, 2.84, 3.16, 3.16, 3.16, 3.43, 3.43, 3.43, 3.43, 3.43, 3.43, 5.15, 6.18, 6.11, 6.45, 6.55, 6.6, 7.37, 7.54, 7.6, 7.6, 7.37, 7.53, 7.2, 7.53, 7.53, 7.1, 4.4, -1.19, -3.79, -4.11, 0.0, 1.13, 1.98, 2.23, 1.98, 1.13, 2.53, 3.39, 3.82, 3.35, 3.72, 3.72, 3.72, 6.58, 6.97, 6.97, 6.97, 6.71, 6.98, 6.98, 6.98, 6.98, 6.7, 6.7, 6.98, 6.35, 6.35, 6.35, 6.35, 6.35, 6.67, 6.95, 6.95, 6.64, 6.64, 6.92, 6.59, 6.59, 6.87, 6.57, 6.51, 6.41, 6.28, 5.6, 5.57, 5.24, 4.88, 4.47, 4.02, 3.53, 2.91, 2.91, 2.5, 2.21, 2.21, 1.88, 2.23, 1.84, 1.13, 1.13, 1.13, 1.6, 2.51, 2.51, 2.51, 2.51, 2.84, 2.84, 2.84, 3.16, 3.16, 3.43, 3.43, 3.43, 3.43, 3.72, 3.35, 3.35, 4.0, 5.95, 5.37, 6.11, 6.11, 6.55, 6.6, 6.57, 6.57, 7.54, 7.12, 6.8, 7.53, 7.12, 7.37, 7.54, 6.26, 0.0, -4.77, -3.48, -0.98, 0.0, 2.53, 2.98, 1.98, 1.13, 0.99, 2.84, 3.72, 3.72, 3.72, 3.72, 3.72, 6.97, 6.97, 6.97, 6.97, 6.71, 6.98, 6.98, 6.98, 6.98, 6.98, 6.7, 6.98, 6.63, 6.35, 6.35, 6.35, 6.35, 6.67, 6.95, 6.95, 6.95, 6.64, 6.92, 6.59, 6.87, 6.87, 6.79, 6.7, 6.41, 6.28, 6.1, 5.81, 5.7, 5.33, 4.92, 4.47, 4.02, 3.53, 3.39, 2.68, 2.68, 2.5, 2.21, 2.53, 2.23, 1.8, 1.13, 1.13, 1.84, 2.51, 2.84, 2.84, 2.51, 2.84, 2.84, 2.84, 3.16, 3.16, 3.43, 3.43, 3.43, 3.43, 3.72, 3.35, 3.35, 3.35, 4.89, 5.06, 6.11, 6.55, 6.55, 6.55, 6.55, 5.37, 5.95, 5.49, 6.6, 7.12, 7.37, 7.54, 7.54, 6.64, 2.24, -5.94, -3.79, -1.8, 0.0, 0.99, 2.53, 2.98, 2.21, 1.4, 2.84, 3.72, 3.72, 3.72, 3.72, 3.72, 6.97, 6.97, 6.97, 6.97, 6.71, 6.98, 6.98, 6.98, 6.98, 6.98, 6.98, 6.7, 6.98, 6.35, 6.35, 6.35, 6.64, 6.67, 6.67, 6.95, 6.95, 6.92, 6.92, 6.87, 6.87, 6.79, 6.79, 6.7, 6.41, 6.67, 6.51, 5.88, 5.57, 5.7, 5.33, 4.92, 4.02, 4.02, 3.53, 3.39, 3.07, 2.68, 2.68, 2.53, 2.23, 2.51, 1.6, 1.33, 1.84, 2.23, 2.84, 2.84, 2.84, 2.84, 2.84, 2.84, 3.43, 3.43, 3.43, 3.43, 3.43, 4.0, 3.72, 3.72, 3.35, 3.35, 3.14, 3.64, 6.6, 7.2, 6.55, 6.55, 6.55, 6.45, 6.01, 5.37, 6.6, 6.57, 6.88, 6.88, 6.88, 6.57, -5.36, -6.45, -4.19, -2.0, -1.13, 0.0, 1.98, 2.98, 2.53, 2.21, 2.84, 3.72, 3.72, 3.72, 3.72, 3.72, 6.97, 6.97, 6.97, 6.97, 6.71, 6.98, 6.98, 6.98, 6.98, 6.98, 6.98, 6.7, 6.98, 6.98, 6.35, 6.35, 6.64, 6.67, 6.67, 6.95, 6.95, 6.92, 6.92, 6.87, 6.87, 6.79, 6.79, 6.7, 6.41, 6.67, 6.51, 6.3, 5.99, 5.57, 5.24, 4.89, 4.47, 4.02, 4.02, 3.53, 3.39, 3.07, 3.07, 3.07, 2.79, 2.51, 2.23, 1.84, 1.84, 2.23, 2.84, 2.84, 2.84, 3.14, 3.35, 3.35, 3.35, 3.72, 3.72, 3.72, 3.43, 4.0, 4.27, 3.88, 3.72, 3.35, 3.2, 3.6, 6.16, 6.6, 7.2, 7.2, 6.82, 7.2, 7.2, 7.6, 6.6, 6.57, 6.57, 6.4, 5.95, 6.18, -3.58, -6.0, -4.89, -2.95, -1.27, 0.0, 0.0, 1.98, 2.21, 2.21, 3.82, 4.24, 4.24, 3.82, 3.82, 3.82, 6.97, 6.97, 6.97, 6.97, 6.71, 6.98, 6.98, 6.98, 6.98, 6.98, 6.98, 6.98, 6.98, 6.98, 6.69, 6.35, 6.64, 6.67, 6.67, 6.95, 6.95, 6.92, 6.92, 6.87, 7.15, 6.79, 6.7, 6.7, 6.41, 6.67, 6.28, 6.1, 5.81, 5.57, 5.26, 5.33, 4.88, 4.47, 4.02, 3.98, 3.39, 3.39, 3.39, 3.2, 2.79, 2.79, 2.23, 2.23, 2.23, 2.23, 3.14, 3.14, 3.35, 3.35, 3.35, 3.35, 3.35, 3.35, 3.35, 3.35, 3.72, 3.88, 4.27, 4.27, 3.88, 3.6, 3.6, 3.2, 4.11, 7.12, 7.53, 7.2, 7.2, 7.2, 7.6, 8.06, 7.85, 7.37, 6.57, 6.21, 5.84, 5.37, 2.0, -4.77, -6.0, -4.29, -2.84, -1.13, 0.0, 0.99, 1.74, 2.21, 2.98, 4.24, 4.24, 4.24, 4.24, 4.24, 6.97, 6.97, 6.97, 6.97, 6.97, 6.98, 6.98, 6.98, 6.98, 6.98, 6.98, 6.98, 6.98, 6.98, 6.69, 6.69, 6.97, 6.67, 6.67, 6.95, 6.95, 6.92, 6.92, 6.87, 7.15, 6.79, 6.7, 6.7, 6.41, 6.67, 6.28, 6.1, 5.81, 5.81, 5.57, 5.24, 4.89, 4.47, 4.47, 3.98, 3.87, 3.82, 3.82, 3.82, 3.6, 2.79, 2.53, 2.53, 2.23, 2.79, 3.14, 3.14, 3.35, 3.72, 3.72, 3.35, 3.35, 3.35, 3.35, 3.35, 3.35, 3.88, 3.88, 4.27, 4.27, 4.11, 3.6, 3.82, 4.3, 6.94, 7.12, 6.6, 6.6, 6.6, 6.8, 7.53, 7.37, 8.0, 6.94, 5.95, 5.37, 6.11, 4.58, -2.53, -5.94, -5.37, -3.58, -2.23, -0.87, 0.0, 1.13, 1.98, 2.53, 3.72, 4.24, 4.24, 4.24, 4.24, 6.97, 6.97, 6.97, 6.97, 6.97, 6.98, 6.98, 6.98, 6.98, 6.98, 6.98, 6.98, 6.98, 6.98, 6.98, 6.69, 6.97, 6.67, 6.67, 6.95, 6.64, 6.92, 6.92, 6.87, 6.79, 6.79, 7.07, 6.7, 6.56, 6.41, 6.28, 6.1, 6.1, 5.81, 5.57, 5.24, 5.24, 4.89, 4.47, 4.47, 3.98, 3.98, 3.98, 3.87, 3.6, 3.07, 2.21, 2.21, 2.53, 2.79, 3.14, 3.14, 3.35, 3.72, 3.72, 4.11, 4.11, 4.11, 3.72, 3.72, 3.35, 4.0, 4.11, 4.11, 4.52, 4.11, 3.7, 3.82, 4.3, 6.45, 6.6, 6.99, 6.99, 6.6, 6.6, 6.6, 6.6, 6.21, 6.57, 5.49, 5.49, 6.55, 5.84, -0.0, -5.73, -6.0, -4.29, -1.8, -0.98, 0.0, 0.0, 1.13, 1.98, 3.72, 3.72, 3.35, 3.35, 3.35, 6.97, 6.97, 6.97, 6.97, 6.97, 6.98, 6.98, 6.98, 6.98, 6.98, 6.98, 7.27, 6.98, 6.98, 6.98, 6.69, 6.97, 6.67, 6.67, 6.95, 6.64, 6.92, 6.59, 6.87, 6.79, 7.07, 7.07, 6.7, 6.56, 6.41, 6.28, 6.51, 6.1, 5.88, 5.99, 5.57, 5.24, 5.33, 4.92, 4.47, 3.98, 3.98, 3.98, 3.98, 3.87, 3.2, 2.53, 2.21, 2.21, 3.07, 3.45, 3.35, 3.35, 3.72, 4.11, 4.11, 4.11, 3.88, 3.88, 3.88, 3.88, 4.11, 4.11, 4.11, 4.11, 4.3, 4.3, 3.87, 3.98, 4.3, 5.09, 7.12, 6.8, 6.6, 6.6, 6.6, 6.6, 6.18, 5.95, 5.49, 6.21, 6.6, 6.6, 1.19, -5.36, -6.0, -4.65, -2.68, -0.98, -0.98, 0.0, 0.87, 1.98, 3.35, 3.82, 3.82, 3.82, 3.82, 6.97, 6.97, 6.97, 6.97, 6.97, 7.26, 6.98, 6.98, 6.98, 6.98, 6.98, 6.98, 6.98, 6.98, 6.98, 6.97, 6.97, 6.67, 6.95, 6.95, 6.64, 6.92, 6.59, 6.87, 6.79, 7.07, 6.7, 6.7, 6.95, 6.56, 6.8, 6.51, 6.1, 6.3, 5.88, 5.57, 5.7, 5.33, 4.92, 4.47, 4.47, 4.02, 4.47, 4.43, 3.87, 3.2, 2.79, 2.79, 3.07, 3.07, 3.07, 3.6, 3.6, 4.0, 4.11, 4.11, 4.27, 4.27, 4.27, 4.27, 4.27, 4.11, 4.11, 4.3, 4.3, 4.3, 4.3, 3.98, 3.98, 3.98, 4.92, 7.1, 7.12, 7.6, 6.99, 6.99, 6.99, 6.6, 6.6, 6.6, 6.21, 6.6, 7.2, 3.22, -4.24, -6.0, -5.37, -3.22, -2.0, -1.08, 0.0, 0.0, 1.13, 2.53, 2.98, 2.98, 2.98, 2.98, 6.97, 6.97, 6.97, 6.97, 6.97, 6.98, 6.98, 6.98, 6.98, 6.98, 6.98, 6.98, 6.98, 6.98, 6.69, 6.97, 6.97, 6.67, 6.95, 6.64, 6.92, 6.92, 6.59, 6.87, 6.79, 7.07, 6.7, 6.95, 6.95, 6.56, 6.8, 6.6, 6.51, 6.3, 6.3, 5.99, 5.7, 5.24, 4.89, 4.92, 4.47, 4.47, 4.47, 4.47, 3.98, 3.39, 3.07, 3.07, 3.07, 3.32, 3.2, 3.6, 3.6, 4.11, 4.11, 4.11, 4.27, 4.27, 4.27, 4.27, 4.27, 4.11, 4.11, 4.3, 4.3, 4.3, 3.98, 3.98, 4.02, 4.02, 4.47, 4.89, 5.7, 8.82, 6.94, 6.94, 6.88, 7.12, 7.12, 6.99, 6.99, 6.99, 7.2, 5.49, -0.0, -5.73, -5.37, -3.79, -2.2, -1.19, -1.05, 0.0, 0.0, 0.0, 1.13, 2.84, 2.84, 2.84, 6.97, 6.97, 6.97, 6.97, 6.97, 6.98, 6.98, 6.98, 6.98, 6.98, 6.98, 6.98, 6.98, 6.98, 6.69, 6.97, 6.97, 6.67, 6.95, 6.64, 6.92, 6.92, 6.59, 6.87, 6.79, 7.07, 6.7, 6.95, 6.95, 6.56, 6.8, 6.6, 6.51, 6.3, 6.3, 5.99, 5.7, 5.24, 4.89, 4.92, 4.47, 4.47, 4.47, 4.47, 3.98, 3.39, 3.07, 3.07, 3.07, 3.32, 3.2, 3.6, 3.6, 4.11, 4.11, 4.11, 4.27, 4.27, 4.27, 4.27, 4.27, 4.11, 4.11, 4.3, 4.3, 4.3, 3.98, 3.98, 4.02, 4.02, 4.47, 4.89, 5.7, 8.82, 6.94, 6.94, 6.57, 7.12, 7.12, 6.99, 6.99, 6.6, 6.99, 6.55, 3.22, -3.35, -5.51, -4.98, -3.22, -2.2, -2.4, -1.05, -0.96, 0.0, 0.0, 0.0, 0.0, 0.0]}, {"header": {"dx": 0.06612293990616946, "dy": 0.0552356325346848, "nx": 98, "ny": 59, "la1": 35.046912555036876, "la2": 31.78801023549047, "lo1": -121.43107172385933, "lo2": -114.95102361305473, "refTime": "2026041721", "parameterCategory": 1, "parameterNumber": 3}, "data": [-5.98, -5.06, -4.45, -4.12, -3.49, -3.22, -2.82, -2.82, -2.36, -2.18, -1.16, -1.16, 0.0, 0.0, 0.85, 0.85, 0.99, 1.84, 2.69, 2.99, 2.99, 2.99, 1.73, 0.94, 0.0, -0.95, -3.48, -4.02, -3.72, -3.72, -4.0, -4.34, -4.47, -4.47, -4.82, -5.73, -6.26, -5.81, -5.29, -4.98, -3.6, -3.13, -0.0, 2.4, 1.98, 1.05, 1.05, -0.0, -0.0, -0.0, -1.08, -1.08, -1.08, -1.27, -2.23, -2.84, -2.84, -2.53, -2.53, -2.21, -1.4, -2.21, -3.2, -4.02, -4.34, -5.26, -5.26, -5.7, -5.73, -5.94, -5.94, -5.73, -5.73, -5.73, -5.81, -6.26, -6.71, -6.65, -7.54, -8.0, -8.29, -7.76, -7.82, -7.06, -6.32, -4.71, -3.45, -2.69, -1.84, -1.75, -1.84, -0.95, 0.0, 2.84, 0.0, -3.2, -4.98, -5.94, -6.23, -5.35, -4.74, -4.12, -3.49, -3.49, -2.82, -2.36, -2.18, -1.7, -1.19, -0.89, 0.0, 0.0, 0.0, 1.26, 1.75, 1.54, 1.4, 1.96, 3.15, 2.99, 1.58, 1.58, 0.95, 0.0, -2.2, -4.34, -4.34, -4.34, -4.77, -4.82, -5.36, -5.36, -6.26, -6.64, -6.45, -4.6, -3.35, -2.21, -0.0, 2.4, 1.84, 1.99, 1.05, 1.14, -0.0, -0.0, -0.0, -0.0, -1.08, -1.08, -1.08, -1.13, -1.4, -2.53, -2.53, -1.6, -1.4, -1.4, -1.6, -2.21, -3.2, -3.82, -4.77, -4.98, -4.98, -4.98, -5.4, -5.4, -5.4, -5.4, -5.7, -5.26, -5.81, -6.26, -6.71, -6.65, -7.54, -8.0, -8.29, -7.76, -7.82, -7.06, -6.32, -4.71, -3.45, -2.69, -1.84, -1.75, -1.84, -0.95, 0.0, 2.84, 0.0, -3.2, -4.98, -5.94, -6.15, -5.59, -4.74, -3.83, -3.49, -3.08, -2.82, -2.36, -1.7, -1.73, -1.08, -0.54, 0.0, 0.89, 0.8, 0.85, 0.85, 0.94, 2.06, 2.83, 2.82, 3.15, 1.58, 1.49, 1.49, 0.89, -1.14, -4.4, -4.92, -4.92, -5.36, -5.81, -6.71, -7.89, -7.37, -7.67, -3.97, -0.0, 1.05, 1.99, 2.76, 2.76, 2.16, 2.16, 1.14, 1.05, -0.0, -0.0, -0.0, -0.0, -0.0, -0.0, -1.08, -1.27, -2.21, -2.21, -1.6, -1.6, -1.6, -1.6, -1.6, -2.84, -3.82, -4.34, -4.4, -4.98, -4.98, -4.98, -4.29, -4.65, -4.6, -4.98, -5.26, -5.36, -5.81, -6.26, -7.1, -7.54, -6.98, -7.85, -8.29, -8.48, -7.82, -7.44, -6.39, -5.3, -3.91, -3.45, -2.69, -2.69, -1.75, -0.89, 0.0, 2.73, 3.58, -2.21, -4.4, -5.94, -6.15, -5.59, -4.71, -4.11, -3.49, -2.84, -2.84, -2.18, -1.7, -1.73, -1.73, -1.73, 0.0, 0.76, 0.85, 0.85, 0.85, 0.94, 1.84, 1.95, 1.96, 1.58, 1.58, 0.95, 0.95, 0.0, -0.96, -4.11, -5.73, -5.81, -6.26, -6.71, -6.71, -7.6, -7.45, -4.74, -0.0, 1.49, 1.98, 2.16, 2.16, 2.16, 2.16, 1.14, 1.05, -0.0, -0.0, -0.0, -0.0, -0.0, -0.98, -1.08, -2.48, -2.84, -2.84, -2.53, -1.6, -1.6, -1.6, -2.84, -2.84, -3.72, -4.77, -5.2, -4.98, -4.98, -4.98, -4.19, -4.19, -4.6, -5.4, -4.98, -4.82, -4.47, -5.36, -6.2, -7.08, -7.54, -8.0, -7.85, -7.89, -8.56, -8.3, -7.82, -7.2, -6.45, -5.53, -4.5, -4.5, -3.8, -2.83, -1.96, 0.0, 1.19, 3.6, 0.0, -4.4, -5.4, -6.15, -5.86, -4.94, -4.11, -3.49, -3.22, -2.84, -2.4, -1.73, -1.73, -1.73, -2.18, -0.89, 0.0, 0.85, 0.0, 0.85, 0.89, 1.84, 2.82, 2.82, 1.84, 1.49, 1.49, 0.89, 0.0, 0.0, -4.74, -7.45, -6.64, -6.88, -6.0, -4.11, -2.2, 0.0, -0.0, 1.98, 1.73, 0.96, -0.0, -0.0, -0.0, -0.0, -0.0, -0.0, -0.0, -0.0, -0.0, -1.08, -1.08, -2.48, -2.48, -2.48, -2.84, -2.84, -2.84, -2.84, -2.84, -2.23, -2.48, -3.72, -4.4, -4.98, -4.98, -4.98, -4.98, -4.98, -4.89, -5.37, -5.6, -5.94, -5.94, -5.29, -5.81, -5.73, -5.59, -6.45, -7.1, -8.05, -7.45, -7.71, -8.56, -8.3, -8.17, -7.76, -7.42, -7.58, -7.15, -6.01, -4.68, -3.77, -3.0, -1.05, 2.2, 2.48, 0.0, -3.72, -4.98, -6.41, -5.49, -4.94, -4.11, -3.49, -3.2, -2.86, -2.2, -2.2, -2.18, -2.18, -2.36, -0.94, 0.0, 0.0, 0.0, 0.94, 2.09, 3.0, 3.22, 3.45, 2.8, 3.2, 3.2, 1.73, 1.52, 0.0, -2.0, -5.2, -6.36, -4.98, -2.73, 0.0, 2.2, 3.9, 4.0, 1.99, -0.0, -0.0, -0.0, -1.19, -1.98, -1.05, -0.96, -1.05, -1.05, -1.19, -1.08, -2.48, -2.73, -3.16, -3.16, -3.16, -2.23, -2.23, -2.23, -2.23, -2.48, -2.48, -3.48, -3.93, -4.8, -5.4, -4.98, -5.37, -4.89, -5.37, -5.6, -6.45, -6.88, -6.88, -6.88, -6.64, -6.71, -6.64, -6.88, -6.88, -7.08, -7.6, -8.44, -8.48, -8.3, -8.72, -8.56, -8.72, -8.72, -8.21, -7.76, -6.99, -5.95, -2.99, 0.0, 1.3, 2.99, 1.99, 0.0, -3.72, -4.65, -6.41, -5.49, -4.65, -4.07, -3.79, -3.48, -2.86, -2.86, -2.4, -2.18, -2.82, -2.82, -0.84, 0.0, 0.0, 0.94, 2.82, 4.19, 4.89, 4.11, 3.63, 3.91, 3.91, 4.19, 4.56, 4.43, 4.11, 3.79, 2.4, 0.0, 0.0, 2.68, 3.58, 4.24, 4.6, 3.79, 2.2, -0.0, -0.0, -1.08, -2.4, -2.6, -1.98, -1.98, -2.12, -1.99, -3.22, -3.48, -3.48, -4.11, -4.11, -3.48, -2.48, -2.48, -1.27, -1.27, -1.27, -1.41, -2.2, -2.95, -4.29, -4.98, -5.4, -5.37, -5.37, -5.58, -6.0, -6.45, -7.08, -7.1, -7.1, -7.54, -7.55, -7.6, -7.6, -7.54, -6.94, -7.08, -7.55, -8.45, -8.56, -8.72, -8.72, -8.99, -8.72, -8.55, -8.21, -7.2, -6.36, -2.84, 1.13, 3.48, 3.91, 3.0, 0.96, 0.0, -3.72, -4.29, -6.28, -5.75, -4.65, -4.07, -3.48, -3.48, -2.86, -2.86, -2.84, -2.82, -2.84, -2.84, 0.0, 1.07, 1.49, 3.35, 4.98, 5.94, 6.02, 5.6, 4.98, 4.22, 5.4, 6.0, 6.0, 6.4, 6.0, 6.8, 5.06, 4.4, 3.48, 5.2, 5.94, 6.4, 4.89, 3.63, 2.95, 0.96, -0.0, -0.0, -0.0, -0.0, -0.0, -1.84, -3.47, -3.72, -4.11, -3.79, -4.29, -5.21, -3.48, -2.95, -2.2, -1.19, -1.08, -1.08, -1.08, -1.08, -1.08, -3.48, -3.93, -4.98, -5.4, -4.98, -4.98, -5.6, -6.45, -6.64, -6.71, -6.64, -6.64, -7.08, -7.6, -7.6, -7.6, -7.15, -7.54, -7.54, -8.0, -8.45, -8.36, -8.0, -8.0, -7.6, -8.0, -8.14, -7.07, -6.6, -3.35, 3.82, 5.09, 4.54, 2.8, 0.95, 0.0, -2.21, -3.72, -4.29, -6.28, -5.37, -4.65, -4.07, -4.0, -3.43, -3.48, -3.49, -3.49, -3.22, -3.22, -3.49, -1.73, 2.32, 4.74, 5.94, 6.71, 7.15, 7.15, 7.08, 7.01, 6.71, 6.71, 7.15, 7.1, 7.45, 7.45, 7.47, 6.8, 5.36, 5.2, 5.94, 7.15, 7.6, 5.94, 4.11, 5.06, 3.72, 1.98, 1.84, 2.4, -0.0, -0.0, -2.4, -4.11, -3.79, -4.74, -4.74, -4.11, -3.79, -3.47, -3.22, -2.4, -1.99, -1.99, -1.05, -0.96, -1.19, -2.2, -3.48, -4.4, -4.4, -4.4, -4.8, -4.98, -5.51, -6.17, -6.17, -5.81, -5.81, -5.73, -5.36, -6.26, -6.26, -6.71, -7.6, -8.05, -8.0, -8.44, -8.01, -8.9, -8.4, -7.67, -7.07, -7.07, -7.07, -6.01, -4.68, 0.0, 4.22, 4.19, 2.76, 0.82, 0.0, 0.0, -3.13, -3.72, -4.29, -6.28, -5.37, -4.93, -4.37, -4.0, -3.78, -4.07, -4.11, -4.12, -3.49, -3.49, -3.83, -1.76, 0.0, 3.22, 6.17, 6.71, 6.26, 6.71, 6.71, 7.15, 7.15, 7.6, 8.05, 8.05, 7.6, 7.6, 7.89, 7.45, 6.71, 6.51, 6.71, 7.01, 7.89, 7.89, 6.51, 5.06, 3.79, 4.11, 1.84, -0.0, -0.0, -2.23, -2.48, -3.48, -3.48, -3.22, -3.63, -3.91, -3.91, -4.11, -4.11, -3.63, -3.63, -3.22, -2.8, -2.16, -1.99, -3.22, -4.29, -4.8, -4.4, -5.51, -4.77, -5.26, -5.26, -5.26, -4.82, -4.47, -4.92, -4.92, -4.38, -4.47, -5.29, -6.2, -6.71, -7.6, -8.0, -8.01, -8.01, -8.46, -8.19, -7.67, -6.7, -6.06, -5.3, -4.71, -2.31, 0.0, 2.47, 1.84, 0.82, 0.0, 0.0, 0.0, 0.0, -2.84, -4.29, -6.28, -5.6, -5.08, -4.55, -4.0, -4.0, -4.41, -4.43, -4.43, -3.83, -4.11, -3.83, -2.84, -2.2, 0.0, 4.34, 4.47, 1.34, 0.45, 0.63, 4.47, 4.92, 5.36, 6.26, 7.15, 7.15, 6.71, 7.15, 7.45, 7.45, 6.94, 6.36, 5.95, 5.69, 5.69, 7.47, 6.51, 4.43, 2.48, -0.0, -1.27, -2.84, -3.35, -3.79, -2.2, -2.48, -3.22, -3.91, -4.74, -4.74, -5.06, -5.06, -5.49, -5.49, -5.37, -3.77, -2.82, -2.8, -3.49, -4.29, -4.29, -4.8, -4.4, -5.26, -5.36, -5.26, -4.4, -4.77, -4.92, -4.47, -3.82, -3.39, -3.9, -4.38, -5.81, -6.26, -6.65, -7.54, -8.0, -8.49, -8.49, -8.36, -7.98, -6.7, -6.01, -4.71, -3.8, -2.23, -0.76, 0.0, 0.0, 0.0, 0.0, 0.89, 1.01, 1.08, -2.68, -4.4, -6.6, -6.0, -5.08, -4.55, -4.55, -4.29, -4.71, -4.43, -4.43, -4.11, -4.11, -4.11, -3.49, -2.84, -1.13, 0.0, 0.0, 0.0, -0.63, -0.4, 0.0, 0.6, 0.95, 5.51, 6.26, 5.81, 5.81, 2.68, 5.2, 6.0, 6.08, 5.84, 6.01, 4.5, 4.34, 5.89, 6.44, 5.26, 2.21, -1.6, -3.35, -2.84, -1.6, -0.0, 4.02, 2.24, 0.0, -3.48, -5.21, -5.06, -4.43, -4.74, -4.89, -4.89, -3.91, -3.0, -2.82, -3.0, -2.99, -3.22, -4.29, -4.8, -5.26, -5.81, -6.17, -5.51, -5.4, -5.7, -5.36, -4.92, -4.34, -4.34, -4.38, -5.36, -6.26, -6.71, -6.64, -7.08, -6.66, -7.15, -8.49, -8.9, -8.99, -8.21, -6.7, -5.21, -4.6, -3.15, -2.31, -1.49, 0.0, 0.0, 0.79, 0.94, 0.84, 0.95, 0.0, -3.82, -7.01, -6.1, -5.08, -4.69, -4.93, -4.84, -4.94, -5.29, -4.71, -4.37, -4.11, -3.79, -3.79, -3.2, -2.22, -1.27, -0.53, -0.57, -0.95, -0.6, -0.6, 0.0, 0.0, 0.63, 0.89, 0.89, 0.63, 0.45, 1.34, 1.26, 3.79, 4.87, 4.5, 4.5, 5.36, 6.18, 6.95, 5.36, 2.2, -2.68, -2.68, 0.0, 2.68, 3.58, 5.81, 6.26, 5.94, 3.79, 0.0, 0.0, -0.0, -0.0, -0.0, 2.24, 4.47, 4.92, -0.0, -1.73, -1.84, -2.2, -3.48, -4.98, -5.73, -6.26, -6.26, -6.17, -6.02, -6.45, -6.2, -6.17, -5.73, -5.73, -5.73, -6.26, -6.71, -6.71, -6.71, -6.64, -6.21, -6.71, -7.11, -8.45, -8.36, -8.99, -8.21, -7.06, -6.18, -4.71, -3.91, -2.4, -0.79, 0.0, 0.0, 0.0, 0.0, 0.0, 0.96, -2.53, -7.09, -6.1, -5.6, -5.08, -5.08, -5.21, -5.29, -5.29, -4.94, -4.65, -4.65, -4.07, -3.73, -3.48, -2.86, -2.23, -1.61, -1.24, -1.26, -0.95, -0.6, -0.6, -0.4, -0.32, -0.45, -0.0, -0.0, 0.0, 0.0, 0.0, 1.61, 4.74, 5.59, 5.24, 6.01, 7.15, 6.32, 5.06, 2.67, 1.08, 3.2, 3.82, 5.81, 6.71, 6.71, 7.15, 5.51, 6.4, 6.0, 5.58, 5.21, 5.21, 5.94, 6.07, 6.0, 5.21, 6.36, 2.4, -1.73, -2.2, -3.72, -5.94, -6.71, -6.71, -4.92, -4.47, -4.02, -4.47, -6.26, -6.17, -6.2, -6.71, -6.71, -6.71, -7.15, -6.71, -6.71, -6.71, -6.71, -7.15, -7.54, -7.81, -7.89, -7.71, -8.14, -7.81, -7.15, -6.45, -4.95, -3.2, -2.35, -1.55, -0.74, -0.89, 0.0, 0.0, 0.0, 0.0, -7.51, -6.6, -5.6, -5.6, -5.21, -5.49, -5.49, -5.29, -4.94, -4.65, -4.29, -4.07, -3.73, -3.43, -2.84, -2.23, -1.88, -1.58, -1.26, -0.95, -0.6, -0.6, -0.4, -0.63, -0.89, -0.45, 0.0, 0.0, 0.45, 0.8, 2.23, 3.35, 6.63, 6.63, 8.0, 9.45, 8.37, 5.89, 4.37, 3.16, 5.36, 7.6, 7.6, 7.6, 7.6, 7.15, 7.01, 6.51, 6.51, 6.51, 5.21, 4.84, 5.94, 5.94, 5.58, 5.06, 6.0, 4.0, -0.0, -3.47, -3.82, -4.47, 0.0, 0.0, 2.4, 1.98, 1.98, 1.63, 0.0, -5.94, -5.81, -5.36, -5.81, -7.15, -7.08, -7.08, -7.15, -6.71, -6.71, -6.71, -7.08, -6.88, -6.79, -7.21, -7.03, -7.82, -7.6, -7.2, -5.46, -4.58, -3.55, -3.33, -2.47, -1.52, -0.89, 0.0, 0.0, 0.0, -7.51, -6.6, -6.1, -6.0, -5.75, -5.49, -5.86, -5.29, -5.21, -4.65, -4.07, -4.0, -3.43, -2.84, -2.53, -2.21, -1.61, -1.58, -1.26, -0.95, -0.95, -0.4, -0.6, -0.95, -0.8, 0.0, 0.89, 1.34, 1.79, 3.53, 3.87, 4.6, 4.9, 8.06, 9.03, 8.82, 8.4, 6.82, 6.8, 6.71, 6.26, 7.15, 7.94, 8.38, 7.94, 7.94, 7.45, 6.64, 6.4, 6.0, 5.6, 5.51, 4.84, 5.21, 4.11, 3.47, 4.74, 5.94, 5.2, -0.0, -1.9, 4.02, 5.51, 6.51, 6.4, 6.08, 4.74, 5.1, 1.58, 0.0, -2.53, 2.24, -0.0, -4.98, -6.88, -6.88, -6.64, -6.2, -6.26, -6.26, -6.64, -6.45, -6.57, -7.12, -6.8, -6.18, -6.99, -6.99, -6.57, -5.58, -5.06, -3.22, -3.22, -2.47, -2.35, -1.55, -1.55, -1.55, -8.0, -7.09, -6.51, -6.1, -5.75, -5.86, -5.49, -5.29, -4.84, -4.29, -4.0, -3.43, -3.09, -2.53, -2.53, -2.21, -2.21, -1.9, -1.86, -1.26, -1.2, -0.4, -0.57, -1.61, -1.24, 0.32, 2.68, 2.68, 3.58, 5.36, 5.7, 5.72, 5.72, 8.85, 8.46, 8.9, 8.94, 8.94, 8.49, 8.05, 8.05, 7.15, 8.38, 6.94, 8.38, 8.06, 7.89, 6.9, 6.08, 6.4, 6.0, 6.0, 6.0, 4.74, 4.74, 3.0, 3.0, 4.29, 6.0, 4.92, 4.02, 5.36, 6.07, 6.07, 5.6, 4.6, 5.06, 3.97, 1.63, 0.0, 0.0, 4.47, 6.17, -0.0, -6.4, -6.99, -6.57, -6.45, -6.2, -6.71, -7.08, -7.37, -7.12, -6.79, -6.8, -6.18, -5.84, -6.0, -6.0, -5.24, -4.54, -4.19, -4.11, -3.22, -3.72, -3.33, -2.51, -2.51, -8.0, -7.51, -7.01, -6.28, -6.28, -5.86, -5.49, -5.21, -4.84, -4.55, -4.0, -3.43, -2.84, -2.53, -2.23, -2.21, -2.5, -2.15, -2.15, -2.4, -1.2, 0.0, 0.57, -0.51, -1.24, 0.45, 3.13, 3.13, 4.02, 6.26, 6.16, 6.16, 6.23, 6.26, 6.71, 8.49, 8.45, 8.49, 8.49, 8.05, 8.05, 8.05, 7.45, 7.94, 8.06, 7.6, 6.63, 6.01, 5.69, 5.72, 6.4, 6.4, 6.08, 6.08, 5.37, 4.56, 4.56, 4.14, 5.31, 6.08, 5.51, 5.36, 5.36, 4.8, 5.51, 4.4, 3.22, 3.72, 1.52, 1.52, 3.48, 4.82, 6.17, 4.47, -4.65, -7.2, -7.2, -7.12, -7.54, -7.6, -7.55, -8.29, -8.29, -7.71, -7.2, -6.55, -6.11, -5.49, -5.58, -4.89, -4.98, -5.4, -4.8, -4.54, -3.91, -3.91, -3.47, -3.47, -8.48, -8.0, -7.01, -6.8, -6.28, -5.86, -5.49, -5.21, -4.93, -4.55, -4.0, -3.43, -2.84, -2.84, -2.23, -3.16, -1.2, -1.49, -1.9, -2.4, -0.45, 2.24, 2.63, 3.2, 2.68, 5.51, 3.09, 6.71, 7.15, 5.78, 6.23, 6.23, 6.23, 6.26, 6.26, 5.78, 5.33, 4.88, 6.26, 7.15, 6.26, 6.64, 7.45, 7.63, 8.0, 6.98, 5.31, 5.31, 6.08, 6.64, 7.01, 7.06, 6.52, 6.9, 6.63, 6.01, 5.31, 6.32, 6.3, 4.2, 3.72, 4.4, 3.16, 2.53, 3.35, 3.72, 2.95, 1.99, 0.96, 3.4, 2.82, 3.72, 3.91, 4.8, -3.2, -6.99, -7.53, -7.85, -8.0, -8.05, -8.29, -8.77, -9.21, -8.19, -8.48, -7.76, -6.55, -5.43, -5.58, -4.54, -4.98, -5.73, -6.17, -5.2, -4.89, -4.43, -4.89, -4.89, -8.91, -8.0, -7.31, -6.8, -6.28, -6.03, -5.49, -5.21, -4.93, -4.17, -4.27, -3.72, -3.35, -2.84, -2.23, -0.54, -0.6, -0.8, -1.27, 0.0, 2.8, 3.39, 3.58, 5.73, 5.51, 5.26, 5.73, 4.47, 4.47, 4.89, 5.36, 5.81, 5.81, 5.81, 5.81, 5.36, 4.92, 4.47, 4.02, 4.02, 3.98, 4.34, 4.77, 5.51, 5.6, 6.63, 5.31, 5.37, 6.64, 7.45, 7.45, 7.47, 7.47, 7.28, 6.18, 6.11, 6.64, 6.32, 5.06, 3.61, 1.49, 0.0, 3.16, 3.48, 3.35, 3.72, 2.95, 1.99, 1.84, 1.03, 1.84, 1.96, 1.84, 2.2, -3.13, -6.17, -6.88, -7.1, -7.6, -7.55, -7.98, -8.0, -8.45, -8.9, -8.29, -7.21, -6.4, -5.46, -4.81, -4.11, -4.43, -5.4, -5.81, -5.73, -4.19, -4.89, -5.37, -5.37, -8.79, -8.22, -7.71, -7.2, -6.8, -6.28, -5.75, -5.21, -5.08, -4.17, -4.27, -3.88, -3.72, -2.84, -2.23, -1.16, -0.54, -0.54, 0.54, 3.39, 4.0, 2.49, 3.07, 2.91, 2.91, 3.07, 3.09, 3.58, 4.02, 4.47, 4.92, 5.36, 5.36, 5.36, 5.36, 5.36, 4.92, 4.47, 4.02, 4.02, 3.98, 4.44, 4.89, 5.7, 6.47, 7.44, 5.69, 6.64, 7.6, 8.05, 7.94, 7.63, 7.47, 6.9, 7.28, 6.18, 6.01, 6.24, 4.8, 1.22, 0.0, 0.0, 0.0, 3.48, 3.35, 3.35, 2.48, 1.99, 1.84, 1.98, 1.84, 0.0, -1.98, -2.2, -4.02, -4.92, -4.02, -4.92, -5.36, -6.26, -6.64, -7.15, -7.6, -7.6, -8.0, -7.81, -7.12, -6.0, -5.46, -4.43, -4.19, -4.29, -5.36, -4.92, -4.6, -4.19, -4.19, -4.19, -9.21, -8.3, -7.81, -7.31, -6.8, -6.28, -5.75, -5.21, -5.08, -4.55, -4.27, -3.88, -3.88, -3.43, -2.84, -2.23, -1.16, -0.53, 0.0, 1.26, 1.34, 1.2, 1.7, 1.86, 2.0, 2.6, 2.63, 3.07, 3.53, 3.98, 4.44, 4.88, 4.89, 4.89, 4.89, 4.92, 4.92, 4.92, 4.47, 4.47, 4.47, 4.92, 4.92, 5.81, 6.16, 6.0, 7.06, 7.15, 8.05, 8.05, 7.94, 7.63, 7.47, 6.9, 6.9, 7.28, 6.45, 6.18, 3.87, 0.0, -1.84, -2.23, 0.0, 1.6, 3.35, 3.72, 2.48, 2.2, 1.99, 1.63, 1.63, 0.0, -4.4, -5.81, -4.47, -3.58, -2.8, -0.99, -1.13, -1.98, -3.72, -5.81, -7.6, -8.05, -8.05, -7.54, -7.37, -7.12, -6.4, -5.46, -4.01, -3.35, -3.6, -4.47, -4.57, -4.19, -4.89, -4.89, -9.21, -9.21, -8.72, -7.71, -6.8, -6.28, -5.75, -5.37, -5.08, -4.8, -4.4, -4.27, -3.88, -3.72, -2.84, -2.51, -2.23, -1.88, -0.71, 0.0, 0.45, 0.89, 1.2, 1.49, 1.86, 2.4, 2.4, 2.91, 3.39, 3.39, 3.87, 4.3, 4.34, 4.88, 4.88, 4.88, 4.92, 4.92, 4.92, 4.47, 4.47, 4.47, 4.92, 5.36, 5.81, 6.23, 7.6, 7.6, 8.05, 8.05, 7.94, 7.63, 7.47, 7.47, 7.47, 6.9, 6.55, 6.32, 4.2, 0.0, -3.22, -3.35, 0.0, 3.2, 4.34, 4.4, 3.48, 2.95, 2.4, 1.99, 1.41, 0.0, -4.74, -4.74, -5.09, -3.13, -2.4, -1.13, 0.0, 0.88, 0.0, -3.72, -6.71, -8.05, -8.05, -8.0, -7.81, -7.37, -7.12, -6.88, -4.81, -3.35, -3.16, -3.9, -4.38, -4.19, -4.11, -4.11, -9.21, -9.21, -8.72, -8.22, -7.2, -6.67, -6.28, -5.37, -5.08, -4.8, -4.4, -4.4, -4.27, -3.88, -3.43, -2.84, -2.23, -2.21, -1.24, 0.0, 0.0, 0.63, 1.2, 1.49, 1.86, 2.4, 2.15, 2.68, 3.07, 3.2, 3.6, 3.7, 4.3, 4.3, 4.34, 4.44, 4.44, 4.47, 4.47, 4.47, 4.47, 4.02, 4.02, 4.44, 4.8, 5.33, 7.6, 8.05, 8.05, 8.49, 8.38, 7.63, 7.47, 7.47, 7.47, 6.9, 5.49, 6.11, 6.32, 1.98, -3.2, -3.13, 3.13, 4.47, 5.26, 4.98, 4.29, 4.74, 2.76, 1.14, 0.0, -0.0, -3.55, -4.89, -6.26, -5.81, -4.8, -2.4, 0.0, 0.0, 1.55, 0.0, -4.38, -6.71, -7.6, -7.6, -7.54, -6.88, -6.45, -6.64, -6.36, -4.19, -3.58, -3.6, -4.0, -4.19, -4.11, -4.11, -9.21, -9.21, -9.21, -8.72, -7.6, -7.08, -6.28, -5.75, -5.47, -4.69, -4.8, -4.4, -4.4, -4.27, -3.88, -3.35, -3.14, -2.21, -1.86, -0.45, 0.0, 0.63, 0.95, 1.26, 1.24, 1.58, 2.15, 2.5, 2.68, 3.07, 3.2, 3.6, 3.6, 3.87, 4.3, 4.3, 4.43, 4.44, 4.47, 4.47, 4.47, 3.98, 3.58, 3.98, 4.11, 4.6, 4.77, 4.88, 4.92, 4.89, 5.09, 7.63, 7.47, 7.63, 7.47, 6.9, 6.44, 5.58, 6.44, 6.4, 3.79, 2.8, 4.02, 4.92, 5.26, 5.4, 4.98, 4.43, 3.22, 0.0, 0.0, 0.0, -3.97, -5.58, -5.73, -5.36, -4.38, -3.72, -2.2, 0.0, 0.0, 0.88, -2.53, -5.81, -6.71, -6.71, -6.64, -6.2, -6.17, -5.75, -6.71, -5.59, -4.6, -4.4, -3.58, -3.79, -4.11, -4.11, -9.7, -9.7, -9.21, -8.51, -8.0, -7.48, -6.95, -5.75, -5.6, -5.08, -4.9, -4.8, -4.4, -4.4, -4.27, -3.88, -3.35, -3.07, -2.0, -0.89, -0.0, -0.0, 0.6, 0.57, 1.24, 1.24, 1.9, 2.15, 2.5, 3.07, 3.07, 3.2, 3.6, 3.6, 3.87, 3.87, 3.87, 3.98, 3.98, 4.47, 4.47, 3.98, 3.53, 3.09, 3.6, 3.88, 4.11, 4.44, 4.47, 4.44, 4.77, 5.02, 7.63, 8.06, 7.6, 7.28, 6.9, 7.06, 7.06, 7.28, 5.69, 5.06, 4.4, 4.82, 5.26, 5.94, 5.37, 5.24, 1.84, 0.0, 0.0, 0.0, -3.39, -5.94, -6.71, -6.71, -5.75, -4.57, -3.82, -2.53, 0.0, 1.98, 0.0, -4.47, -5.81, -6.71, -6.26, -5.81, -5.81, -5.36, -6.17, -6.21, -5.75, -5.09, -4.22, -4.98, -4.11, -4.11, -9.51, -9.51, -9.01, -8.51, -8.0, -7.48, -6.95, -6.41, -5.37, -5.08, -5.08, -4.9, -4.8, -4.8, -4.4, -3.88, -3.35, -3.07, -2.4, -1.34, -0.63, -0.0, -0.0, 0.57, 0.71, 1.24, 1.61, 1.61, 2.21, 2.53, 2.79, 2.79, 2.79, 3.6, 3.6, 3.6, 3.82, 3.82, 3.97, 3.98, 4.02, 4.43, 3.6, 2.24, 2.5, 3.43, 3.88, 4.34, 4.47, 4.44, 4.77, 4.6, 4.6, 4.8, 6.6, 6.18, 6.9, 7.06, 6.57, 5.49, 6.01, 4.29, 4.74, 5.73, 7.01, 5.6, 5.58, 3.72, 1.98, 0.89, 0.0, 0.0, -2.84, -4.47, -5.81, -6.71, -7.15, -5.81, -4.92, -3.13, 2.68, 5.29, 4.92, 0.0, -3.39, -3.9, -5.36, -5.81, -5.81, -6.26, -5.75, -5.75, -6.71, -6.2, -5.09, -4.8, -4.54, -4.54, -9.51, -9.51, -9.01, -8.51, -8.0, -7.6, -7.08, -6.56, -6.28, -5.6, -5.08, -5.31, -4.9, -4.9, -4.8, -4.4, -4.11, -3.6, -2.91, -1.79, -0.95, -0.0, -0.0, -0.0, 0.54, 0.54, 1.2, 1.2, 1.88, 2.21, 2.53, 2.79, 2.79, 3.35, 3.6, 3.6, 3.82, 3.39, 3.53, 3.53, 4.02, 4.02, 4.3, 2.8, 1.34, 1.16, 2.86, 4.6, 4.47, 4.44, 4.6, 4.6, 4.6, 4.6, 4.8, 6.21, 6.9, 7.06, 6.21, 6.18, 4.87, 3.72, 4.89, 6.16, 6.57, 6.9, 4.58, 3.0, 1.96, 0.0, 0.0, -0.89, -1.05, -2.21, 0.0, -2.21, -4.47, -7.08, -6.17, -3.82, 2.2, 4.4, 4.44, 5.59, 2.84, 1.13, 0.0, -4.24, -5.81, -6.26, -6.17, -6.17, -6.71, -6.26, -5.75, -5.51, -4.84, -4.84, -9.92, -9.92, -9.42, -8.91, -8.51, -8.0, -7.48, -6.95, -6.67, -6.28, -5.6, -5.08, -5.31, -5.31, -4.9, -4.8, -4.6, -4.11, -3.53, -2.24, -1.2, -0.6, -0.0, -0.0, -0.0, -0.0, -0.0, 0.61, 1.61, 1.61, 2.53, 2.53, 2.79, 3.14, 3.35, 3.6, 3.2, 3.39, 3.39, 3.53, 3.53, 3.98, 4.92, 6.17, 5.26, 1.7, 3.14, 5.51, 5.36, 4.77, 4.6, 4.6, 4.6, 4.6, 4.52, 4.4, 7.06, 6.9, 6.6, 6.18, 5.49, 4.74, 5.49, 6.99, 6.55, 4.87, 3.97, 2.82, 0.89, 0.0, -0.94, -0.89, -1.05, 3.58, 5.7, 5.73, 4.47, -3.72, -6.0, -4.29, 1.05, 3.88, 3.9, 4.02, 5.75, 4.54, 3.35, 1.19, -2.84, -4.77, -5.26, -5.26, -4.92, -6.26, -5.81, -5.59, -5.2, -5.2, -9.71, -9.71, -9.2, -8.8, -8.28, -8.0, -7.48, -6.95, -6.56, -6.28, -5.75, -5.6, -5.6, -5.31, -5.31, -4.9, -4.8, -4.6, -3.87, -2.68, -1.7, -1.26, -1.24, -1.2, -0.53, -0.61, -0.0, -0.0, 0.59, 1.84, 2.23, 2.53, 2.79, 3.14, 2.79, 3.07, 3.07, 3.32, 2.91, 2.91, 3.53, 3.87, 4.77, 5.36, 5.33, 5.36, 5.73, 5.34, 5.36, 4.77, 4.77, 4.77, 4.6, 4.6, 4.6, 4.52, 4.27, 4.55, 6.6, 6.18, 5.49, 5.06, 5.37, 6.11, 4.87, 4.58, 3.72, 2.82, 1.84, 0.0, -1.96, -0.89, 0.0, 4.34, 5.58, 6.45, 7.15, 4.47, -2.84, -4.43, -0.96, 1.61, 2.97, 3.58, 3.53, 4.84, 4.81, 4.01, 1.7, 0.0, -2.98, -3.72, -3.9, -6.26, -5.81, -5.75, -5.34, -5.34, -9.71, -9.71, -9.2, -9.2, -8.68, -8.15, -7.61, -7.48, -6.95, -6.41, -6.28, -5.75, -5.6, -5.6, -5.4, -5.31, -4.9, -5.09, -4.3, -3.13, -2.12, -2.12, -1.86, -1.58, -0.71, -0.0, -0.0, -0.0, -0.0, 1.27, 2.23, 2.53, 2.53, 2.79, 2.79, 2.79, 3.07, 3.07, 2.91, 3.07, 3.07, 3.82, 4.3, 4.77, 4.89, 6.26, 6.71, 4.92, 4.88, 4.77, 4.77, 4.77, 4.77, 4.6, 4.6, 4.6, 4.4, 4.4, 4.8, 6.21, 5.49, 5.37, 5.24, 4.42, 3.77, 2.82, 1.98, 2.8, 1.52, 0.0, 0.0, 0.96, 1.99, 3.82, 3.22, 4.43, 6.17, 6.64, 4.02, -1.99, -1.6, -0.0, 1.58, 2.63, 2.68, 2.68, 2.84, 4.29, 2.47, 0.88, 0.0, -0.99, -2.97, -4.02, -5.36, -5.36, -5.59, -5.59, -9.71, -9.71, -9.6, -9.2, -8.68, -8.15, -7.76, -7.23, -6.95, -6.56, -6.03, -6.28, -5.75, -5.6, -5.6, -5.4, -5.31, -5.09, -4.77, -3.98, -3.13, -2.6, -2.17, -1.49, -0.0, 0.63, 1.34, 0.95, 1.08, 1.27, 1.84, 2.23, 2.23, 2.79, 2.79, 2.79, 3.07, 3.07, 2.91, 3.07, 3.07, 3.39, 3.6, 4.11, 4.11, 4.3, 4.47, 4.47, 4.44, 4.44, 4.44, 4.34, 4.77, 4.77, 4.6, 5.02, 4.8, 4.8, 4.4, 4.55, 5.37, 5.24, 3.99, 3.2, 2.82, 1.96, 0.95, 1.32, 1.52, 3.2, 3.72, 4.58, 3.0, 3.16, 2.84, 1.98, 3.93, 5.36, 4.98, -0.0, -1.72, -1.7, -0.0, 0.95, 1.79, 2.0, 2.21, 1.8, 0.95, 0.0, 0.0, 0.0, -0.99, -3.58, -4.92, -5.36, -5.59, -5.59, -9.48, -9.48, -9.35, -8.96, -8.82, -8.43, -8.15, -7.61, -7.07, -6.95, -6.41, -6.03, -6.28, -5.89, -6.0, -5.6, -5.4, -5.4, -5.09, -4.34, -3.58, -2.68, -2.68, -1.2, -0.0, 1.2, 1.7, 2.0, 2.15, 2.2, 1.84, 2.23, 2.23, 2.79, 2.79, 2.79, 3.07, 3.07, 2.91, 3.07, 2.68, 3.13, 3.32, 3.35, 4.0, 3.82, 3.98, 4.02, 4.02, 4.44, 4.44, 4.44, 4.77, 4.77, 4.6, 4.6, 4.4, 4.8, 4.8, 4.37, 4.11, 4.42, 4.37, 3.55, 2.82, 1.84, 0.95, 0.89, 1.49, 2.99, 4.42, 4.68, 2.82, 2.0, 2.84, 1.84, 1.99, 3.48, 3.35, 0.82, -0.82, -2.4, -2.68, -0.99, -0.0, 1.2, 1.0, 0.59, 0.0, -1.19, -2.48, -0.99, 0.0, -2.21, -4.02, -5.81, -5.29, -5.29, -9.88, -9.88, -9.35, -9.35, -8.82, -8.43, -7.9, -7.61, -7.23, -6.7, -6.95, -6.41, -6.41, -6.03, -5.89, -6.0, -6.0, -5.6, -5.4, -4.66, -3.98, -3.58, -2.68, -1.34, -0.0, 0.6, 0.99, 1.61, 1.88, 1.61, 1.61, 1.84, 2.23, 2.53, 3.14, 2.79, 3.07, 3.07, 3.32, 3.07, 3.13, 2.68, 2.63, 3.07, 3.72, 4.11, 3.98, 4.02, 4.02, 4.43, 4.43, 4.34, 4.34, 4.77, 4.6, 4.6, 4.4, 4.27, 4.55, 4.37, 6.01, 5.69, 5.03, 4.14, 2.64, 2.64, 3.0, 3.0, 3.4, 2.82, 3.77, 4.6, 2.99, 2.4, 3.72, 0.95, -0.0, -0.0, 0.88, 0.88, -0.0, -1.83, -3.48, -3.16, -1.2, 0.0, 0.0, 0.0, -1.84, -2.95, -3.72, -3.6, -1.4, -1.4, -3.39, -4.92, -5.36, -5.36, -9.88, -9.88, -9.35, -9.35, -8.96, -8.43, -8.27, -7.9, -7.61, -7.23, -6.7, -6.95, -6.41, -6.41, -6.41, -6.28, -6.51, -6.0, -5.6, -5.31, -4.77, -3.98, -3.13, -1.79, -0.95, -0.0, -0.0, 0.54, 1.2, 1.2, 1.88, 1.61, 2.23, 2.53, 3.14, 3.14, 3.2, 3.2, 3.39, 3.53, 3.58, 3.53, 2.68, 2.15, 3.09, 3.88, 3.87, 4.02, 4.02, 3.98, 4.43, 4.3, 4.3, 4.11, 4.11, 4.52, 4.27, 4.27, 4.0, 4.07, 3.79, 5.31, 5.31, 4.14, 4.14, 2.99, 2.64, 2.82, 3.0, 2.82, 2.64, 2.99, 3.15, 2.8, 4.02, -0.0, -0.95, -0.0, -0.0, -0.0, -0.0, -1.8, -2.68, -2.68, -2.84, -0.89, -1.24, -2.99, -3.63, -3.79, -4.4, -4.34, -4.02, -2.8, -2.21, -3.9, -5.36, -5.36, -9.88, -9.88, -9.1, -9.1, -8.72, -8.82, -8.43, -7.9, -7.35, -7.61, -7.07, -6.7, -6.7, -6.7, -6.51, -6.41, -6.28, -6.28, -6.0, -5.81, -5.09, -4.34, -3.53, -2.68, -1.7, -0.6, -0.0, -0.0, 0.54, 0.65, 1.2, 1.88, 2.23, 2.23, 3.14, 3.14, 3.6, 3.2, 3.39, 3.53, 3.58, 3.98, 3.53, 2.12, 2.84, 3.72, 3.87, 4.02, 4.02, 3.98, 4.3, 4.3, 4.3, 4.11, 4.11, 3.88, 3.88, 4.0, 4.0, 3.79, 3.49, 3.83, 3.8, 2.67, 2.67, 2.69, 2.82, 2.51, 2.82, 2.82, 2.99, 3.0, 2.69, 1.84, 2.53, 1.27, -0.0, -0.0, -0.0, -0.0, -0.98, -2.23, -2.84, -2.68, -4.0, -4.02, -3.93, -3.63, -3.63, -3.79, -4.29, -4.92, -4.47, -4.02, -3.39, -3.39, -4.82, -4.82, -9.63, -9.63, -9.48, -9.1, -9.1, -8.55, -8.43, -8.27, -7.9, -7.35, -7.23, -7.07, -7.07, -6.7, -6.7, -6.7, -6.56, -6.67, -6.28, -6.0, -5.4, -5.09, -4.3, -3.09, -2.24, -1.7, -0.6, -0.0, -0.0, 0.54, 1.2, 1.88, 2.21, 2.53, 2.79, 3.14, 3.35, 3.6, 3.39, 3.97, 3.98, 4.47, 4.34, 4.47, 3.07, 3.35, 4.3, 4.02, 4.02, 3.98, 4.3, 4.3, 4.3, 4.11, 4.11, 3.88, 3.88, 3.64, 3.48, 3.48, 3.49, 3.78, 3.8, 3.4, 2.83, 2.69, 1.73, 0.89, 0.95, 1.84, 3.0, 2.64, 1.58, 0.0, 2.68, 2.48, 3.48, 1.3, -0.0, -0.96, -1.8, -1.98, -2.84, -3.58, -4.15, -4.92, -4.22, -3.63, -2.8, -2.99, -3.79, -4.77, -4.92, -4.47, -4.47, -3.9, -4.0, -4.38, -9.63, -9.63, -9.48, -9.1, -9.1, -8.55, -8.55, -8.27, -7.9, -7.72, -7.35, -7.35, -6.79, -6.79, -6.79, -6.7, -6.7, -6.56, -6.67, -6.28, -6.0, -5.31, -4.6, -3.87, -3.13, -2.24, -1.6, -0.6, -0.0, 0.57, 1.24, 1.61, 1.88, 2.21, 2.79, 2.79, 3.35, 3.6, 3.82, 3.82, 3.98, 4.47, 4.92, 6.17, 3.58, 3.6, 4.3, 4.47, 4.02, 3.98, 3.87, 3.87, 4.3, 4.11, 4.11, 3.88, 3.72, 3.43, 3.48, 3.48, 3.79, 3.49, 5.31, 3.77, 2.67, 1.4, 1.32, 1.84, 1.84, 1.98, 2.8, 1.73, 1.49, 0.0, 0.0, 1.05, 2.16, 2.16, -0.0, -0.88, -2.84, -2.84, -2.84, -3.22, -4.38, -4.47, -4.22, -3.63, -2.8, -1.98, -2.99, -4.09, -4.47, -4.77, -4.47, -4.02, -4.15, -4.0, -9.63, -9.63, -9.48, -9.1, -9.1, -8.93, -8.55, -8.18, -8.27, -7.9, -7.9, -7.35, -7.35, -7.15, -6.79, -6.79, -6.79, -7.07, -6.95, -6.41, -6.28, -5.75, -5.31, -4.6, -3.98, -2.68, -1.79, -1.2, -0.0, -0.0, 0.57, 1.24, 1.9, 2.5, 2.68, 3.07, 3.07, 3.2, 3.39, 3.39, 3.53, 3.98, 4.47, 4.88, 6.17, 4.02, 4.44, 4.47, 4.02, 3.98, 3.87, 3.87, 3.7, 3.7, 4.0, 3.72, 3.72, 3.43, 3.78, 3.48, 3.48, 3.49, 3.08, 3.8, 2.54, 2.54, 2.82, 2.82, 3.0, 3.22, 2.8, 1.03, 0.0, 0.0, 0.0, -0.0, -0.0, -0.0, -0.0, -0.98, -2.23, -2.84, -2.84, -3.35, -3.9, -4.47, -4.57, -4.54, -3.91, -2.6, -2.16, -3.48, -4.02, -4.34, -4.34, -4.92, -4.38, -4.15, -9.63, -9.63, -9.21, -9.21, -8.84, -8.93, -8.55, -8.55, -8.0, -8.0, -7.9, -7.72, -7.35, -7.35, -7.15, -6.79, -6.79, -6.79, -6.7, -6.95, -6.41, -6.03, -5.75, -5.31, -4.19, -3.53, -2.68, -1.79, -0.63, -0.0, 0.6, 1.26, 1.86, 2.15, 2.5, 2.68, 3.07, 3.2, 3.39, 3.39, 3.53, 3.53, 3.58, 4.02, 4.47, 6.26, 4.47, 4.02, 3.98, 3.98, 3.87, 3.87, 3.7, 3.6, 3.6, 3.35, 3.72, 3.43, 3.43, 3.48, 3.48, 3.79, 5.31, 5.03, 5.03, 5.03, 3.77, 4.14, 4.19, 3.91, 1.98, 0.89, 0.0, 1.49, 1.73, 4.47, -0.0, -0.0, -0.0, -1.08, -2.23, -2.68, -2.68, -3.35, -4.02, -4.38, -5.51, -4.89, -4.11, -2.99, -2.16, -2.2, -3.58, -4.24, -4.34, -4.92, -5.26, -5.26, -9.38, -9.38, -9.21, -9.21, -8.84, -8.65, -8.29, -8.55, -8.37, -8.0, -8.0, -7.64, -7.44, -7.44, -6.87, -6.87, -7.15, -6.79, -6.79, -7.07, -6.7, -6.15, -6.03, -5.75, -4.9, -4.11, -3.39, -2.17, -1.34, 0.0, -0.0, 0.95, 1.7, 1.86, 2.4, 2.91, 2.91, 2.91, 3.39, 3.53, 3.53, 3.58, 3.58, 3.58, 3.58, 4.02, 4.02, 3.98, 3.98, 3.87, 3.87, 3.82, 3.6, 3.6, 3.6, 3.35, 3.72, 3.43, 3.43, 3.48, 3.48, 3.48, 3.49, 5.31, 5.31, 6.01, 5.69, 4.56, 4.74, 3.72, 1.98, 0.89, 0.0, 0.95, 2.99, 4.56, 4.02, -0.0, -1.98, -2.4, -1.8, -2.41, -2.68, -3.6, -4.02, -5.26, -5.2, -4.98, -4.11, -3.22, -1.99, -2.0, -3.2, -3.82, -4.47, -4.82, -4.82, -4.82, -9.76, -9.76, -9.21, -9.21, -9.21, -8.65, -8.65, -8.65, -8.29, -8.0, -8.0, -8.0, -7.44, -7.44, -7.44, -6.87, -6.87, -6.87, -7.15, -6.79, -7.07, -6.7, -6.15, -5.86, -5.21, -4.55, -3.88, -2.91, -2.12, -0.89, 0.0, 0.89, 1.34, 1.79, 2.17, 2.6, 2.63, 3.07, 3.07, 3.09, 3.13, 3.13, 3.13, 3.58, 3.58, 3.58, 4.02, 3.98, 3.87, 3.82, 3.82, 3.82, 3.6, 3.6, 3.35, 3.35, 3.35, 3.43, 3.43, 3.43, 3.48, 3.48, 3.48, 5.69, 6.01, 5.31, 5.31, 5.69, 3.72, 3.0, 0.95, 0.0, 0.0, 0.89, 1.96, 3.77, 5.06, 3.58, -1.99, -2.99, -2.2, -1.8, -2.84, -3.6, -4.02, -4.15, -4.29, -3.79, -3.79, -2.95, -2.2, -1.08, -2.21, -3.82, -4.47, -4.77, -4.77, -4.77, -9.76, -9.76, -9.21, -9.21, -9.21, -8.65, -8.65, -8.65, -8.29, -8.37, -8.0, -8.0, -8.0, -7.44, -7.44, -7.44, -7.21, -6.87, -6.87, -7.15, -7.15, -6.79, -6.23, -6.15, -5.59, -4.94, -4.55, -3.72, -2.5, -1.58, -0.63, 0.0, 0.89, 1.34, 1.79, 2.24, 2.68, 2.68, 3.13, 3.13, 3.13, 3.13, 3.13, 3.58, 3.58, 3.58, 4.02, 3.98, 3.87, 3.82, 3.82, 3.6, 3.6, 3.6, 3.35, 3.35, 3.35, 3.16, 3.16, 3.16, 2.86, 3.15, 3.15, 3.49, 5.31, 5.31, 3.8, 2.67, 3.77, 1.96, 1.58, 0.0, 0.0, 0.89, 2.82, 3.55, 3.77, 3.91, 0.0, -3.22, -3.49, -2.68, -3.58, -4.0, -4.47, -3.9, -3.16, -3.22, -1.99, -2.2, -2.4, 0.0, -1.9, -3.58, -4.02, -4.77, -4.77, -4.77, -9.76, -9.76, -9.21, -9.21, -9.21, -9.01, -8.65, -8.65, -8.65, -8.08, -8.37, -8.0, -8.0, -7.8, -7.44, -7.17, -7.17, -7.21, -7.21, -6.87, -6.87, -6.87, -6.79, -6.23, -5.98, -5.59, -4.94, -4.07, -3.16, -1.88, -1.24, 0.0, 0.6, 1.2, 1.7, 2.12, 2.24, 2.68, 2.68, 3.13, 3.13, 3.13, 3.07, 3.53, 3.58, 4.02, 4.02, 3.98, 3.82, 3.6, 3.6, 3.6, 3.6, 3.6, 3.35, 3.14, 2.84, 3.16, 3.16, 3.16, 2.86, 3.15, 3.15, 2.86, 3.49, 4.0, 2.69, 1.84, 1.84, 1.84, 0.94, 0.94, 1.73, 1.73, 2.82, 2.82, 2.99, 3.4, 2.4, -3.2, -4.11, -4.65, -4.29, -4.0, -4.02, -4.02, -3.35, -2.0, -1.05, -1.84, 0.0, 0.0, 0.0, -3.2, -4.02, -4.77, -4.77, -4.77, -9.76, -9.76, -9.58, -9.21, -9.21, -8.73, -8.73, -8.38, -8.65, -8.29, -8.08, -8.37, -8.0, -8.0, -7.51, -7.51, -7.17, -6.92, -6.92, -6.92, -6.87, -6.87, -6.87, -6.28, -5.95, -5.65, -5.06, -4.43, -3.49, -2.48, -1.16, -0.65, 0.0, 0.71, 1.24, 1.86, 2.17, 2.6, 2.63, 3.07, 3.07, 3.07, 3.07, 3.53, 3.53, 3.98, 4.02, 3.98, 3.82, 3.6, 3.6, 3.6, 3.6, 3.35, 3.14, 2.84, 2.84, 3.16, 3.16, 3.16, 2.86, 3.15, 3.15, 2.86, 3.49, 4.0, 2.69, 2.99, 2.99, 2.99, 1.84, 1.84, 1.84, 1.73, 1.73, 1.96, 2.82, 2.67, 2.99, 0.0, -4.24, -4.11, -4.11, -4.0, -3.9, -4.02, -3.9, -2.84, -2.2, 0.0, 0.0, -1.27, -1.8, -2.53, -3.82, -4.0, -4.0, -4.0, -9.76, -9.76, -9.58, -8.94, -8.94, -8.94, -8.73, -8.38, -8.38, -8.65, -8.08, -8.08, -7.73, -7.73, -7.51, -7.51, -7.51, -7.17, -6.92, -6.92, -6.92, -6.92, -6.59, -6.62, -6.28, -5.69, -5.08, -4.75, -4.12, -2.84, -1.76, -0.59, 0.0, 0.0, 0.65, 1.2, 1.9, 2.4, 2.4, 2.91, 2.91, 2.91, 2.91, 3.39, 3.39, 3.98, 3.98, 3.98, 3.82, 3.6, 3.6, 3.6, 3.6, 3.35, 2.84, 2.84, 3.16, 3.16, 3.16, 3.16, 2.86, 2.86, 3.15, 3.15, 3.49, 4.37, 5.31, 5.31, 4.37, 3.77, 2.83, 2.67, 1.84, 1.73, 1.96, 1.96, 2.99, 2.67, 3.6, 1.96, -1.8, -4.29, -4.74, -4.22, -4.38, -4.02, -3.58, -3.35, -2.23, -1.13, 0.0, -1.41, -1.27, -2.84, -2.84, -3.72, -3.72, -3.72, -9.76, -9.76, -9.3, -9.3, -8.94, -8.94, -8.73, -8.73, -8.38, -8.38, -8.44, -8.08, -8.08, -7.73, -7.73, -7.51, -7.51, -7.51, -6.92, -6.92, -6.92, -6.92, -6.92, -6.32, -6.32, -5.71, -5.38, -4.75, -3.85, -2.82, -2.4, -1.23, 0.0, 0.0, 0.51, 1.16, 1.2, 1.9, 2.15, 2.5, 2.8, 2.91, 2.91, 3.07, 3.39, 3.87, 3.98, 3.98, 3.82, 3.6, 3.35, 3.35, 3.14, 3.14, 2.84, 2.84, 3.16, 3.16, 3.16, 3.16, 2.86, 2.86, 2.86, 2.86, 2.86, 4.58, 5.24, 5.53, 4.26, 3.6, 2.67, 0.94, 0.94, 0.89, 0.89, 1.84, 2.67, 3.6, 3.6, 2.83, 0.0, -4.47, -5.37, -5.37, -4.98, -3.9, -3.39, -2.84, -2.98, -2.98, -1.98, -1.41, -1.27, -1.8, -2.84, -3.72, -3.72, -3.72, -9.76, -9.58, -9.3, -9.3, -8.94, -8.73, -8.73, -8.73, -8.38, -8.38, -8.38, -8.08, -8.08, -8.08, -7.73, -7.51, -7.51, -7.51, -6.95, -6.95, -6.64, -6.92, -6.64, -6.32, -6.32, -5.71, -5.38, -4.73, -4.1, -3.45, -2.36, -1.7, -0.55, 0.0, 0.0, 0.59, 1.16, 1.88, 1.88, 2.5, 2.5, 2.5, 2.5, 3.07, 3.2, 3.82, 3.53, 3.39, 3.6, 3.35, 3.14, 3.14, 3.14, 2.84, 2.84, 2.84, 3.16, 3.16, 3.16, 2.86, 2.86, 2.86, 2.86, 2.86, 2.86, 4.29, 4.42, 5.24, 5.53, 4.68, 3.77, 1.84, 0.94, 0.0, 0.0, 1.84, 2.83, 3.6, 2.83, 2.83, 0.89, -2.2, -4.77, -3.79, -4.11, -3.58, -3.39, -2.98, -3.35, -2.98, -3.39, -2.53, -1.13, -1.27, -2.23, -2.48, -2.48, -2.48, -9.58, -9.3, -9.3, -9.3, -8.94, -8.73, -8.73, -8.73, -8.73, -8.38, -8.38, -8.15, -8.08, -8.08, -8.08, -7.51, -7.51, -7.23, -6.95, -6.95, -6.64, -6.64, -6.34, -6.04, -6.04, -5.72, -5.38, -4.73, -4.08, -3.42, -2.8, -1.67, -1.16, -0.61, 0.0, 0.0, 0.59, 1.16, 1.16, 1.88, 2.21, 2.21, 2.5, 2.79, 3.07, 3.39, 3.39, 3.39, 3.2, 3.14, 3.14, 3.14, 3.14, 2.84, 2.84, 2.84, 3.16, 3.16, 2.86, 2.86, 2.86, 2.86, 2.48, 2.23, 2.23, 2.86, 3.97, 5.37, 5.24, 5.24, 4.68, 3.77, 2.82, 2.82, 0.94, 2.67, 3.4, 2.83, 2.67, 1.84, 0.94, 0.0, -2.68, -1.19, -3.48, -3.9, -3.13, -2.53, -1.98, -2.98, -3.39, -2.97, -2.84, -2.48, -2.48, -2.48, -2.48, -2.48, -9.3, -9.3, -9.3, -9.3, -8.94, -8.73, -8.73, -8.73, -8.73, -8.73, -8.38, -8.15, -8.44, -8.08, -8.08, -8.08, -7.51, -7.23, -6.95, -6.95, -6.95, -6.64, -6.34, -6.04, -5.72, -5.72, -5.1, -4.46, -4.08, -3.42, -2.77, -2.32, -1.14, -0.59, 0.0, 0.0, 0.0, 0.59, 1.13, 1.61, 1.61, 1.88, 2.21, 2.53, 2.79, 3.6, 3.39, 3.39, 3.07, 3.14, 2.84, 2.84, 3.14, 2.84, 2.84, 2.84, 3.16, 3.16, 2.86, 2.86, 2.86, 2.86, 2.48, 2.23, 2.23, 2.23, 3.91, 5.06, 5.24, 4.68, 4.68, 4.68, 4.68, 5.37, 3.97, 4.58, 3.77, 2.67, 1.84, 0.94, 0.94, 0.95, 0.0, -1.98, -3.79, -3.6, -3.58, -2.97, -2.53, -1.98, -2.21, -2.8, -2.84, -2.48, -2.48, -2.48, -2.48, -2.48, -9.3, -9.3, -9.3, -9.3, -8.94, -8.73, -8.73, -8.73, -8.73, -8.73, -8.73, -8.38, -8.15, -8.08, -8.08, -8.08, -7.85, -7.23, -7.23, -6.95, -6.95, -6.34, -6.34, -5.72, -5.72, -5.1, -5.1, -4.46, -4.08, -3.64, -2.96, -2.14, -1.67, -1.14, -0.59, 0.0, 0.0, 0.0, 0.59, 1.13, 1.84, 1.61, 1.61, 2.53, 2.79, 3.14, 3.2, 3.32, 3.07, 2.79, 2.84, 2.84, 2.84, 2.84, 2.84, 2.84, 2.86, 2.86, 2.86, 2.86, 2.86, 2.86, 2.48, 2.48, 2.23, 2.23, 2.51, 2.6, 3.77, 3.6, 4.68, 4.68, 4.68, 5.53, 6.01, 5.37, 3.77, 2.82, 1.96, 1.96, 1.96, 2.82, -0.0, -1.84, -3.35, -4.0, -3.39, -3.58, -2.98, -1.98, -2.53, -2.21, -2.84, -2.48, -2.48, -2.48, -2.48, -2.48, -9.3, -9.3, -9.3, -9.3, -8.94, -8.73, -8.73, -8.73, -8.73, -8.73, -8.73, -8.38, -8.15, -8.15, -8.08, -8.08, -7.85, -7.23, -7.23, -6.95, -6.95, -6.34, -6.34, -5.72, -5.72, -5.1, -5.1, -4.46, -4.08, -3.64, -2.96, -2.29, -1.8, -1.67, -1.16, -0.54, 0.0, 0.0, 0.0, 0.59, 1.13, 1.84, 1.84, 1.84, 2.23, 3.14, 3.35, 3.07, 3.07, 2.79, 2.84, 2.84, 2.84, 2.51, 2.23, 2.23, 2.23, 2.48, 2.48, 2.48, 2.86, 2.86, 2.44, 2.22, 2.48, 2.23, 1.6, 1.8, 2.64, 3.77, 3.6, 3.6, 4.26, 4.5, 4.5, 3.8, 3.77, 2.82, 2.82, 3.2, 3.97, 4.42, -0.0, -3.0, -3.91, -3.93, -3.82, -4.02, -3.13, -2.98, -2.21, -2.21, -1.27, -1.41, -1.41, -1.27, -1.27, -1.27, -9.3, -9.3, -9.3, -9.3, -8.94, -8.73, -8.73, -8.73, -8.73, -8.73, -8.73, -8.73, -8.15, -8.15, -7.81, -8.08, -7.85, -7.23, -7.23, -6.95, -6.95, -6.34, -6.34, -5.72, -5.36, -5.1, -4.46, -4.46, -4.08, -3.64, -3.42, -2.77, -2.32, -1.67, -1.05, -0.59, -0.61, 0.0, 0.0, 0.57, 1.13, 1.13, 1.13, 1.6, 2.23, 2.23, 2.79, 2.79, 2.79, 2.79, 2.51, 2.51, 2.23, 2.23, 2.23, 2.23, 2.23, 2.23, 2.23, 2.23, 2.48, 2.22, 2.44, 2.44, 2.22, 1.8, 1.8, 1.6, 1.76, 2.67, 2.83, 3.6, 3.6, 3.6, 3.8, 2.69, 1.75, 1.84, 2.82, 3.55, 4.87, 5.37, 4.0, -1.19, -3.0, -3.22, -2.84, -3.39, -3.13, -2.97, -2.6, -2.21, -1.98, -1.41, -1.41, -1.41, -1.41, -1.41, -9.3, -9.3, -9.3, -9.3, -9.3, -8.73, -8.73, -8.73, -8.73, -8.73, -8.73, -8.73, -8.15, -8.15, -7.81, -7.81, -7.55, -7.23, -7.23, -6.95, -6.95, -6.34, -6.34, -5.72, -5.36, -5.1, -4.46, -4.46, -4.08, -3.64, -3.42, -2.77, -2.32, -2.32, -1.67, -1.16, -0.54, 0.0, 0.0, 0.57, 1.11, 1.27, 1.27, 1.27, 1.8, 2.23, 2.53, 2.53, 2.79, 2.23, 2.51, 2.51, 2.23, 2.48, 2.48, 2.23, 2.23, 2.23, 2.23, 2.23, 2.23, 2.22, 2.22, 2.44, 2.44, 1.76, 1.8, 1.27, 1.23, 1.73, 2.67, 3.77, 3.77, 3.77, 3.4, 2.83, 1.84, 0.89, 1.73, 3.97, 5.37, 5.24, 5.49, 2.53, -1.98, -3.22, -2.68, -3.35, -3.47, -3.58, -3.39, -2.98, -2.53, -2.48, -1.41, -1.41, -1.41, -1.41, -9.3, -9.3, -9.3, -9.3, -9.3, -8.73, -8.73, -8.73, -8.73, -8.73, -8.73, -8.73, -8.15, -8.15, -8.15, -7.81, -7.55, -7.23, -7.23, -6.95, -6.64, -6.34, -6.34, -5.72, -5.1, -5.1, -4.71, -4.46, -3.83, -4.08, -3.42, -2.77, -2.77, -2.32, -1.67, -1.16, -1.16, -0.54, 0.0, 0.0, 0.57, 0.57, 0.57, 1.11, 1.8, 1.84, 2.21, 2.21, 2.53, 2.23, 2.51, 2.51, 2.23, 2.48, 2.48, 1.76, 1.76, 1.76, 2.48, 2.48, 2.23, 2.0, 1.76, 1.76, 1.94, 1.76, 1.58, 1.27, 1.23, 1.84, 3.77, 3.99, 3.99, 3.77, 3.77, 3.77, 3.77, 3.55, 2.82, 4.58, 4.58, 4.68, 4.87, 4.47, -0.96, -3.0, -3.22, -3.6, -3.9, -4.02, -4.02, -3.39, -2.98, -2.48, -2.48, -2.23, -2.23, -2.23, -9.3, -9.3, -9.3, -9.3, -9.3, -8.73, -8.73, -8.73, -8.73, -8.73, -8.73, -8.49, -8.15, -8.15, -8.15, -7.81, -7.55, -7.23, -7.23, -6.95, -6.64, -6.34, -6.04, -5.72, -5.1, -4.71, -4.71, -4.46, -3.83, -4.08, -3.42, -2.96, -2.77, -2.14, -1.8, -1.67, -1.16, -0.59, 0.0, 0.0, 0.57, 0.57, 0.57, 0.57, 1.11, 1.6, 2.53, 2.21, 2.21, 1.84, 2.07, 2.23, 2.23, 2.48, 1.76, 1.76, 1.76, 2.22, 2.22, 2.22, 2.22, 1.76, 1.76, 1.76, 1.76, 1.23, 1.23, 1.11, 0.57, 1.23, 1.7, 2.67, 3.4, 3.77, 3.77, 3.77, 3.77, 4.42, 3.97, 4.58, 3.55, 3.77, 3.77, 4.77, -0.0, -3.0, -3.49, -3.58, -3.9, -3.9, -4.02, -3.47, -2.98, -2.23, -1.27, -1.27, -1.27, -1.27, -9.3, -9.3, -9.3, -9.3, -9.3, -9.08, -8.73, -8.73, -8.73, -8.73, -8.73, -8.15, -8.15, -8.15, -8.15, -7.55, -7.55, -7.23, -6.95, -6.95, -6.64, -6.34, -6.04, -5.72, -5.1, -4.71, -4.46, -4.46, -4.05, -3.83, -3.4, -2.96, -2.77, -2.29, -2.14, -1.67, -1.14, -0.59, 0.0, 0.0, 0.0, 0.0, 0.0, 0.63, 1.11, 1.6, 2.23, 2.23, 1.84, 1.84, 1.84, 1.8, 1.8, 2.0, 1.76, 1.76, 2.44, 2.44, 2.44, 2.44, 2.44, 1.76, 1.76, 1.23, 1.23, 1.23, 1.23, 0.57, 0.57, 0.57, 0.0, 0.89, 2.67, 3.8, 2.99, 2.99, 2.99, 3.77, 3.77, 3.77, 3.55, 3.77, 3.6, 5.37, 1.41, -3.0, -3.22, -4.29, -4.0, -4.34, -4.02, -4.02, -3.39, -2.53, -1.98, -1.98, -1.98, -1.98, -9.3, -9.3, -9.3, -9.3, -9.3, -8.73, -8.73, -8.73, -8.73, -8.73, -8.15, -8.15, -8.15, -8.15, -7.81, -7.55, -7.55, -7.23, -6.95, -6.64, -6.34, -6.34, -6.04, -5.72, -5.1, -4.71, -4.46, -4.05, -4.05, -3.83, -3.4, -2.75, -2.96, -2.29, -2.29, -1.8, -1.14, -1.16, -0.54, 0.0, 0.0, 0.0, 0.0, 0.0, 0.57, 1.13, 1.84, 1.84, 1.84, 1.33, 1.6, 1.8, 1.8, 1.76, 1.76, 1.76, 2.44, 2.44, 2.44, 2.44, 2.44, 1.76, 1.76, 1.23, 1.23, 1.23, 0.57, 0.57, 0.0, 0.0, 0.0, 0.54, 1.14, 1.47, 1.73, 1.73, 1.96, 2.67, 2.67, 2.99, 2.99, 2.99, 3.6, 4.58, 4.02, -0.96, -3.22, -3.79, -4.4, -4.77, -5.26, -4.92, -4.02, -3.58, -3.39, -2.84, -2.84, -2.84, -9.3, -9.3, -9.3, -9.3, -9.3, -8.73, -8.73, -8.73, -8.73, -8.73, -8.15, -8.15, -8.15, -8.15, -7.81, -7.55, -7.55, -7.23, -6.95, -6.64, -6.34, -6.34, -6.04, -5.72, -5.1, -4.71, -4.46, -4.05, -4.05, -3.83, -3.4, -2.75, -2.96, -2.29, -2.29, -1.8, -1.14, -1.16, -0.54, 0.0, 0.0, 0.0, 0.0, 0.0, 0.57, 1.13, 1.84, 1.84, 1.84, 1.33, 1.6, 1.8, 1.8, 1.76, 1.76, 1.76, 2.44, 2.44, 2.44, 2.44, 2.44, 1.76, 1.76, 1.23, 1.23, 1.23, 0.57, 0.57, 0.0, 0.0, 0.0, 0.54, 1.14, 1.47, 1.73, 1.73, 2.82, 2.67, 2.67, 2.99, 2.99, 3.77, 3.99, 4.68, 5.37, 2.23, -1.84, -2.99, -4.29, -4.4, -4.8, -5.26, -4.82, -4.92, -4.47, -4.02, -4.02, -4.02]}]